GFSFLT2_925_thetae_000.txt.gz
Theta_e
338 339 336 336 332 328 326 328 328 328 328 328 329 326 327 325 323 328 330 330 331 330 330 331 330 329 326 327 329 331 331 332
335 335 337 337 335 327 327 325 326 327 328 329 329 329 329 328 328 326 328 329 329 329 329 329 329 328 327 322 325 326 326 326
335 337 337 335 333 327 333 332 331 331 329 326 329 332 328 330 327 327 325 323 322 325 324 324 326 326 325 324 323 323 324 328
325 330 334 334 332 327 333 334 332 332 332 331 330 329 329 327 326 323 322 321 319 320 321 321 319 321 323 326 324 320 322 326
321 326 331 333 332 331 332 331 330 329 329 328 327 325 325 325 325 326 325 320 317 317 319 320 320 319 318 319 323 323 323 321
319 324 328 328 328 327 329 327 326 325 325 325 323 323 322 324 324 322 320 321 322 321 317 318 316 319 320 318 318 318 319 323
318 320 325 327 325 324 322 320 319 318 318 318 321 321 323 322 322 322 321 321 321 320 320 317 315 315 315 317 316 317 318 319
317 318 321 321 323 322 319 317 314 314 315 317 319 320 320 321 319 319 318 318 319 319 321 321 321 321 321 319 318 319 317 316
315 316 318 319 320 319 316 313 311 312 315 316 316 316 314 314 314 314 314 315 314 314 314 315 317 319 321 322 323 322 322 321
314 312 313 314 315 313 312 311 310 312 314 314 313 313 313 313 312 311 308 308 309 308 306 307 311 313 315 316 315 318 321 322
312 311 309 311 311 311 310 310 309 311 312 312 311 309 308 308 308 308 306 305 305 305 305 304 304 304 305 310 308 307 309 315
311 310 309 310 309 309 309 309 309 309 309 309 309 307 306 306 306 306 306 305 305 305 305 304 304 304 304 303 304 305 309 315
310 310 309 308 308 308 308 308 308 308 308 308 308 307 306 305 305 305 305 305 304 304 304 304 304 304 304 303 303 303 305 305
311 310 309 308 308 307 307 308 308 308 307 307 307 307 305 305 305 304 304 304 304 304 305 304 304 303 305 304 303 303 305 305
312 311 310 309 308 308 308 307 307 306 306 306 307 306 306 306 305 305 304 304 304 304 303 303 304 304 303 304 304 304 304 304
313 312 311 310 309 308 307 307 306 306 305 305 305 306 306 306 305 305 304 303 303 303 304 304 303 304 304 304 304 304 304 304
313 312 312 311 310 309 307 307 307 307 306 305 305 305 304 304 304 303 303 303 303 302 301 302 302 304 304 304 304 304 304 304
313 313 312 312 311 310 308 307 306 307 306 305 304 303 302 301 301 300 300 299 299 299 298 298 299 300 301 301 302 303 303 303
314 313 313 312 312 311 309 308 306 305 306 304 302 302 300 299 298 298 297 297 296 295 295 296 297 297 298 298 298 299 300 300
314 313 313 313 312 311 310 308 306 306 304 302 299 298 298 298 297 296 295 295 294 294 294 295 295 296 296 297 298 299 299 299

GFSFLT2_925_thetae_003.txt.gz
Theta_e
338 337 336 335 332 324 324 326 326 326 327 328 328 327 326 325 330 330 331 330 329 329 329 329 329 329 329 328 330 332 333 332
339 338 337 335 333 326 330 325 326 326 327 328 328 328 328 327 326 326 328 328 329 329 330 330 329 328 327 326 326 328 329 330
334 338 337 335 334 328 333 332 330 330 329 327 329 330 326 327 326 323 322 321 324 325 325 326 326 326 326 326 324 323 325 327
324 324 333 333 333 327 333 331 331 331 330 329 329 330 326 324 322 320 318 318 318 319 321 320 323 323 321 323 325 326 322 323
321 323 327 333 330 330 331 330 331 329 328 328 327 324 321 323 323 322 321 317 317 317 319 320 320 320 321 320 321 324 320 321
319 319 325 329 327 330 330 331 327 327 324 324 322 321 319 321 321 320 317 317 315 317 317 317 314 313 315 318 319 320 320 321
318 318 322 324 325 325 324 324 322 319 318 319 321 322 322 321 321 321 320 321 320 320 322 321 320 320 320 319 316 318 317 316
317 317 319 321 324 323 321 318 317 315 315 315 318 319 320 321 319 319 317 316 314 314 316 317 317 318 320 321 321 321 321 320
316 316 318 319 321 322 320 314 311 312 313 314 317 316 315 313 314 312 313 311 312 310 307 305 306 310 313 315 316 318 320 321
314 313 314 316 318 318 315 313 310 310 312 313 312 314 313 312 312 311 310 308 307 306 305 305 304 304 303 304 310 307 307 308
313 313 309 311 313 313 312 311 310 311 313 314 312 309 309 309 309 309 305 305 305 305 305 304 304 304 304 304 303 302 303 303
312 311 311 309 311 310 309 309 309 309 313 312 311 309 307 307 307 307 306 305 305 305 304 304 304 303 304 303 304 303 303 303
311 310 310 309 309 309 308 308 308 308 308 308 311 308 307 306 305 307 306 305 304 305 304 304 304 304 303 304 303 303 303 303
311 310 309 309 308 308 308 307 307 307 307 308 309 308 307 306 305 305 304 304 304 304 305 305 304 303 305 303 301 303 303 305
312 311 310 310 309 308 307 307 307 308 307 308 307 307 307 306 306 305 305 304 304 304 303 303 304 305 303 304 304 303 303 304
313 313 312 312 311 309 308 308 308 307 307 306 306 307 306 307 306 306 305 303 303 304 303 302 303 304 304 304 304 304 304 304
314 313 312 312 312 311 309 308 307 307 307 306 306 306 307 307 306 304 303 303 302 301 301 300 299 299 300 302 302 303 303 303
313 313 313 313 313 312 311 310 308 307 307 306 306 304 303 302 302 302 301 300 299 298 298 297 296 295 296 298 299 301 301 301
314 314 314 314 313 313 312 311 310 308 307 307 304 302 299 299 299 299 299 299 298 297 296 295 294 294 295 296 297 297 297 298
314 312 312 312 313 311 310 311 311 309 306 306 302 299 297 297 296 296 295 295 295 296 296 294 294 294 295 295 296 296 296 298

GFSFLT2_925_thetae_006.txt.gz
Theta_e
333 334 333 331 326 322 324 325 326 326 326 327 327 326 325 325 326 329 330 329 328 326 326 325 325 326 327 327 328 327 328 330
336 336 334 332 327 329 326 325 325 325 326 326 326 327 327 326 325 325 326 328 328 328 329 330 329 329 328 328 326 327 329 330
337 337 335 333 330 331 331 330 329 328 325 326 328 328 325 326 325 324 324 324 325 327 328 328 327 326 326 326 325 324 325 324
330 333 335 333 332 330 332 331 330 330 329 329 329 329 326 325 322 321 320 319 321 323 322 323 325 324 323 321 323 325 326 324
322 320 321 330 328 329 332 331 330 330 329 328 328 328 325 324 322 321 319 317 316 316 317 319 319 319 319 320 320 320 324 323
320 319 324 329 328 331 331 330 330 328 327 326 323 321 318 320 320 318 317 316 316 317 318 319 318 318 318 318 316 317 319 319
319 318 318 327 326 329 329 329 329 326 323 322 321 321 321 319 319 318 318 318 318 318 317 318 320 320 320 320 319 320 320 318
318 317 316 319 324 323 322 322 319 317 317 316 318 320 320 320 321 321 318 315 315 310 307 308 307 309 311 313 315 316 317 318
317 316 316 317 319 322 322 320 316 313 313 313 314 317 318 318 317 317 316 313 311 308 305 304 304 304 303 303 303 308 307 304
316 314 315 317 316 320 319 315 313 311 310 311 312 313 313 312 312 312 311 308 308 306 304 304 304 303 303 303 304 303 303 302
313 312 313 312 312 314 315 312 312 310 310 311 312 311 310 311 312 311 309 305 305 305 305 304 304 304 303 303 303 303 303 302
312 312 311 311 309 310 311 310 310 310 310 311 312 313 309 307 308 308 307 305 305 305 304 304 304 304 303 303 303 303 303 303
312 312 311 310 309 309 309 309 308 308 308 309 313 310 310 307 306 306 307 305 305 305 304 304 304 304 303 303 303 303 303 303
312 312 311 311 310 309 309 308 308 308 307 307 309 310 310 309 307 305 305 305 305 304 304 305 304 303 304 302 300 302 302 303
313 313 313 312 311 310 309 308 307 307 307 307 307 307 309 308 307 306 305 304 304 304 304 303 303 303 303 303 301 300 302 303
313 313 313 312 311 310 309 308 307 308 307 307 307 307 308 307 307 306 305 304 304 304 302 301 301 300 298 300 299 300 300 300
313 313 313 312 312 311 311 309 308 308 308 307 307 306 306 307 306 305 305 304 303 300 299 296 295 295 295 295 295 295 298 299
314 313 313 312 312 312 312 311 311 309 309 307 307 305 306 306 306 305 302 299 300 301 298 296 297 296 298 298 295 296 296 297
311 311 310 310 310 310 310 310 310 310 309 307 306 304 302 301 299 298 297 295 295 296 297 298 299 297 295 294 294 294 295 296
311 311 310 309 309 309 309 308 308 308 309 307 304 301 298 296 295 295 296 297 296 297 297 297 296 294 294 294 295 295 295 295

GFSFLT2_925_thetae_009.txt.gz
Theta_e
333 333 331 328 324 322 324 324 324 325 324 324 325 325 324 325 327 328 329 329 327 327 328 327 324 325 325 328 328 329 328 327
334 334 333 330 325 326 324 324 324 325 325 325 325 326 326 325 326 326 327 327 327 328 328 329 329 329 328 328 327 327 327 327
335 335 334 331 328 329 328 328 326 327 325 326 326 327 325 325 324 323 323 324 325 326 327 327 327 326 326 326 325 324 324 324
336 335 335 333 330 330 330 330 329 328 327 327 328 327 325 324 321 319 320 320 321 322 322 322 323 323 323 322 321 320 320 324
333 332 332 332 331 330 331 330 330 329 328 327 327 327 325 324 322 320 317 315 314 315 315 316 318 317 316 316 316 317 319 320
324 324 328 329 329 329 331 331 330 329 328 326 326 323 321 318 319 318 317 315 312 314 315 315 316 317 316 317 318 318 318 317
321 319 324 321 325 328 331 330 329 329 327 324 323 321 320 318 318 318 316 316 317 317 314 313 313 312 311 311 311 313 317 318
319 319 319 320 324 326 327 328 327 328 324 322 319 319 320 320 319 320 320 318 316 311 307 305 303 303 303 303 303 304 308 305
319 318 318 318 320 320 321 320 318 317 316 316 314 314 318 319 319 320 319 316 313 310 306 304 303 303 303 303 303 303 303 303
319 317 316 317 317 317 319 319 316 313 311 311 311 312 313 315 315 315 315 313 310 308 304 304 304 303 303 303 303 303 303 303
316 314 314 315 313 313 314 314 313 312 311 310 310 312 312 311 310 311 311 310 306 305 305 304 303 303 303 303 302 303 303 302
313 312 312 310 310 310 310 310 310 310 310 310 310 312 313 311 309 310 311 308 305 305 305 304 303 303 303 303 302 302 302 302
312 312 311 310 310 309 309 309 309 309 308 308 309 308 311 312 309 307 308 307 305 305 305 304 303 303 303 302 303 302 302 300
311 312 311 311 311 311 310 310 309 308 308 308 307 307 307 312 310 307 306 306 306 305 305 304 304 304 302 301 299 301 300 300
312 312 312 312 311 311 310 309 308 309 309 308 308 307 307 310 310 309 307 305 306 305 305 304 304 302 302 302 299 299 299 299
312 312 311 311 310 310 309 308 307 309 310 310 310 309 307 306 307 310 308 305 305 305 303 303 303 301 297 301 296 297 296 295
312 312 312 312 311 311 311 310 310 310 309 308 308 307 306 306 306 308 307 304 303 303 301 296 296 295 296 296 297 296 295 296
312 311 311 310 310 309 308 308 308 308 308 308 308 308 307 305 305 305 305 303 299 296 296 297 298 297 296 295 295 295 294 294
311 311 310 309 309 308 307 307 307 306 306 306 307 306 304 302 303 301 299 297 296 298 298 298 298 298 298 298 298 294 294 294
310 309 308 308 308 305 304 305 304 304 304 304 304 303 299 297 296 297 297 297 297 296 296 296 295 293 293 294 294 293 293 293

GFSFLT2_925_thetae_012.txt.gz
Theta_e
330 329 328 326 323 322 323 323 324 324 325 325 325 325 325 325 326 326 327 327 327 327 327 327 327 328 328 328 329 329 329 329
332 332 331 328 325 326 325 324 324 324 325 325 325 325 325 324 324 323 323 324 325 326 326 327 328 328 327 326 325 325 325 324
333 333 332 330 327 327 327 327 326 327 325 324 325 325 324 323 322 321 321 321 322 322 323 325 326 326 326 324 321 321 322 323
334 334 333 332 329 328 328 328 328 328 327 325 326 326 325 323 322 319 318 319 319 319 320 320 321 321 321 320 319 317 318 318
335 333 332 331 331 329 328 328 329 328 327 326 326 326 326 324 323 321 319 316 315 314 315 315 315 316 317 317 315 314 316 317
335 328 323 322 327 329 328 329 329 329 328 327 325 324 323 318 316 316 316 315 314 312 314 316 314 313 313 312 311 311 313 316
328 322 321 325 327 328 328 329 330 329 329 327 325 323 320 319 318 317 317 316 315 315 314 310 307 305 304 303 303 304 307 308
323 321 324 325 323 324 326 329 328 328 328 327 324 321 319 319 319 319 318 318 318 314 309 306 303 303 302 302 302 303 303 302
322 321 321 320 320 320 321 321 321 320 322 320 318 316 313 314 317 317 318 319 318 314 310 305 303 303 303 303 303 303 303 303
320 319 317 317 317 317 317 318 319 316 314 313 312 311 311 312 312 312 312 315 316 312 310 304 304 303 303 303 302 302 302 302
318 318 315 315 315 314 316 316 313 312 312 311 311 311 311 311 311 310 310 311 312 310 308 304 304 303 303 303 302 302 302 302
317 315 314 313 312 310 310 310 310 310 310 309 309 309 310 311 312 311 310 309 310 309 305 304 304 304 303 303 302 302 302 302
314 313 312 311 310 310 310 310 310 310 310 310 309 308 308 309 311 312 311 309 308 308 306 305 304 304 303 303 303 302 302 301
312 312 310 310 309 309 308 308 309 309 310 310 309 308 308 308 308 309 311 309 308 308 306 305 304 304 303 300 299 300 301 300
311 310 309 308 308 308 309 309 309 310 311 310 310 310 308 307 307 307 308 310 308 307 306 305 304 303 302 302 299 299 297 298
309 309 309 310 309 309 309 308 308 308 308 307 307 308 307 307 306 305 307 310 307 306 305 304 303 302 301 301 298 298 294 294
310 310 310 310 309 308 308 306 305 305 305 306 304 304 305 305 306 305 304 306 306 304 303 302 301 299 295 297 297 296 296 294
310 310 310 309 309 308 305 303 303 303 304 303 304 303 304 304 305 303 303 302 299 297 297 297 298 298 297 298 296 295 295 294
310 309 308 308 307 304 305 305 304 303 303 303 302 302 302 302 301 301 298 297 297 297 297 296 297 297 295 295 295 293 293 293
309 308 308 307 307 305 305 305 304 302 301 302 301 301 299 298 297 297 297 297 298 297 297 296 294 293 292 292 292 292 292 293

GFSFLT2_925_thetae_015.txt.gz
Theta_e
325 326 326 325 323 323 323 323 324 324 324 324 324 324 324 324 324 325 325 325 324 325 325 326 327 328 328 327 327 326 326 326
329 329 329 327 325 325 325 325 325 324 324 324 323 323 323 324 323 322 321 321 322 323 324 325 326 326 326 325 324 324 324 324
332 331 331 329 326 326 326 327 326 327 326 325 323 323 324 323 320 319 317 318 320 320 320 321 323 324 324 323 322 321 320 320
333 332 332 329 327 327 326 327 327 327 327 326 325 325 325 324 322 321 319 317 316 317 317 317 317 318 319 318 318 317 317 318
334 333 332 328 328 328 327 326 327 327 327 326 326 325 324 324 322 320 318 318 315 315 312 314 315 314 314 314 313 314 316 318
335 334 332 329 327 328 328 328 328 328 328 327 327 325 323 322 318 317 317 316 315 313 313 313 312 311 310 309 308 309 315 314
336 335 329 323 323 326 327 327 328 329 328 327 327 325 323 321 319 318 317 317 316 316 315 312 306 304 303 302 302 302 303 307
335 332 323 322 322 322 324 326 328 327 326 326 327 325 321 318 316 314 314 316 317 318 315 311 307 303 303 303 303 303 303 303
333 325 321 319 320 320 320 320 320 320 318 318 318 316 314 313 312 312 312 313 316 318 316 312 307 304 303 303 303 303 302 302
329 322 319 317 318 317 316 315 317 317 315 314 313 312 311 311 311 310 311 312 313 315 315 312 308 304 304 304 303 302 302 302
324 320 318 316 316 315 313 313 313 312 311 311 311 310 310 310 310 310 310 311 311 311 312 311 308 306 305 304 303 302 302 302
319 318 317 315 315 313 311 310 310 310 310 309 309 309 309 309 309 310 310 311 311 310 311 310 308 306 305 304 305 304 302 302
317 317 314 313 313 310 309 309 309 309 309 309 309 308 308 307 307 308 309 312 312 310 310 309 308 305 305 305 305 304 304 304
314 310 309 308 307 307 307 307 309 310 310 310 309 309 308 308 307 307 308 310 310 311 309 308 307 306 306 306 307 306 303 303
308 307 307 308 309 309 309 309 309 309 308 307 306 306 305 304 305 305 306 308 308 309 309 308 308 306 305 306 308 308 306 303
310 309 309 309 308 308 306 306 306 305 305 304 303 304 304 304 304 304 305 306 307 307 307 307 306 307 304 303 302 302 306 306
309 309 309 308 307 306 305 305 305 304 304 302 301 301 302 303 302 302 303 304 305 304 304 303 303 304 303 302 300 299 299 300
309 309 308 308 306 306 305 305 305 304 304 303 302 301 301 301 301 301 302 301 299 299 299 299 299 299 299 299 299 299 298 298
308 308 308 307 306 305 305 305 305 304 303 302 301 300 300 299 299 299 299 298 298 298 297 296 296 295 294 294 293 292 292 292
308 307 307 306 305 304 305 305 304 303 301 300 299 298 298 298 298 298 298 298 298 298 296 295 294 293 292 292 292 292 292 292

GFSFLT2_925_thetae_018.txt.gz
Theta_e
330 330 328 323 323 323 324 324 324 324 324 324 323 323 324 324 324 324 324 324 324 325 325 326 326 327 327 326 326 326 330 329
332 332 331 331 330 324 325 325 324 325 325 324 324 325 324 324 324 323 321 321 321 322 322 323 324 325 325 325 325 325 327 328
334 333 333 331 329 328 326 326 326 327 328 325 328 329 328 328 323 320 318 317 317 317 318 318 318 319 320 321 321 323 325 325
335 336 335 332 327 330 330 329 330 330 331 331 328 329 329 326 325 321 319 317 316 313 313 313 315 318 319 319 319 321 321 322
336 337 336 334 330 328 327 327 328 329 332 331 330 330 329 328 326 324 324 322 320 319 319 318 319 318 317 317 317 318 317 317
337 337 337 335 330 328 327 327 328 328 329 331 330 328 327 327 324 323 322 321 321 319 319 320 319 318 316 314 314 314 314 315
338 338 337 332 330 328 328 328 327 328 327 327 328 326 325 324 322 321 320 319 319 319 318 318 316 313 311 310 309 310 311 309
338 339 337 329 326 328 326 327 326 326 324 324 326 325 323 321 319 318 317 317 317 317 317 317 314 313 311 310 308 308 309 309
337 337 332 327 326 324 323 322 322 321 321 322 322 323 321 320 318 317 316 316 318 319 318 317 315 313 310 309 308 308 308 309
333 332 328 326 324 323 321 320 319 318 318 318 318 318 318 318 317 317 316 317 316 316 316 315 315 313 311 309 308 308 308 308
329 330 326 324 323 321 321 320 319 318 318 316 316 316 316 316 316 316 316 316 315 316 315 315 315 312 311 309 308 308 307 307
328 327 324 323 320 319 316 315 315 314 314 314 313 313 313 314 314 315 316 316 315 314 315 315 314 313 311 309 308 308 308 307
323 323 319 317 316 314 314 314 313 313 313 313 313 312 312 312 312 313 313 313 314 315 314 314 315 313 312 310 309 309 309 308
315 313 312 311 311 311 312 312 313 313 313 312 311 310 309 309 309 310 310 310 311 312 313 314 314 313 313 311 313 311 310 309
313 313 313 313 312 312 313 313 313 312 310 309 308 307 307 307 307 308 308 308 309 310 311 312 313 313 313 312 313 313 311 310
313 313 312 312 311 311 311 310 310 309 308 307 307 306 305 305 305 306 306 307 307 308 308 309 310 311 311 312 310 310 312 312
313 313 312 312 311 309 309 310 309 308 308 307 306 305 304 304 304 304 305 306 306 306 306 307 307 306 307 307 305 306 307 308
313 312 311 311 310 309 308 308 308 307 306 305 303 303 302 302 303 303 304 304 304 303 301 299 299 299 298 297 297 298 300 299
312 312 311 310 309 308 307 307 306 306 305 303 303 302 302 302 302 303 303 302 301 300 299 297 296 295 294 294 293 293 292 292
312 312 310 309 308 307 306 306 306 305 303 302 302 301 301 301 302 302 302 301 301 298 297 296 295 292 294 294 294 293 292 292

GFSFLT2_925_thetae_021.txt.gz
Theta_e
328 329 327 323 323 324 324 324 324 324 324 324 323 323 323 323 323 322 321 320 320 321 321 322 323 324 324 325 324 325 325 326
330 330 329 330 330 323 324 325 325 325 325 324 323 329 327 325 328 323 317 316 317 318 318 319 318 319 320 321 321 322 326 325
331 330 329 328 327 326 327 326 326 330 330 328 330 330 329 328 326 321 320 318 317 315 315 315 314 316 319 318 315 322 323 323
332 334 331 328 324 328 328 327 329 329 330 330 328 329 328 326 327 326 324 323 321 319 319 318 319 319 319 319 320 320 319 319
331 337 334 331 328 325 326 326 327 328 330 330 328 328 329 327 326 326 326 325 323 321 320 320 320 320 318 317 317 317 316 317
331 338 336 332 328 326 325 325 327 327 328 328 327 326 326 325 323 322 320 320 320 320 320 320 321 320 317 316 315 314 313 315
330 335 340 333 330 326 326 326 326 327 326 325 325 324 323 322 321 320 319 318 319 318 318 318 318 318 316 314 313 311 312 312
330 334 339 334 326 327 325 326 325 325 323 322 323 324 323 322 320 319 318 317 317 318 318 318 318 316 315 314 313 311 310 311
331 334 337 333 326 325 323 322 321 321 321 321 321 321 320 320 319 319 318 318 318 318 318 318 318 317 316 314 312 312 311 310
329 333 336 332 325 324 322 321 320 319 319 319 319 320 319 319 318 318 318 318 318 318 317 317 317 317 316 315 313 311 311 311
329 333 333 330 325 323 322 321 320 319 319 318 318 318 317 318 317 317 317 317 318 318 317 316 316 317 316 315 314 312 311 311
328 331 331 327 324 322 319 318 317 317 316 316 316 316 316 316 316 316 316 316 315 315 316 317 317 316 316 315 315 313 311 311
328 328 323 321 320 318 317 317 316 316 316 316 316 315 314 313 313 312 312 312 312 313 314 315 316 316 317 317 316 315 313 312
319 318 317 316 315 315 315 316 315 316 316 314 313 312 311 310 309 310 309 310 310 311 312 313 314 314 316 316 319 316 315 314
317 316 316 316 315 315 315 315 315 314 313 313 312 312 310 309 308 308 308 308 308 309 309 310 312 312 312 314 317 317 316 313
316 316 315 315 314 313 314 314 314 314 313 313 312 311 309 307 306 306 307 307 307 308 308 309 310 310 309 309 311 312 313 315
317 316 315 314 314 313 313 313 313 312 311 310 309 307 306 305 305 305 306 306 307 307 307 307 306 306 305 303 305 307 308 305
316 315 315 314 314 313 312 311 310 309 308 307 306 305 304 304 304 304 305 306 306 305 302 301 300 300 299 297 296 296 297 295
316 315 315 313 312 311 310 309 308 308 307 306 305 304 303 302 303 304 304 304 302 301 301 300 298 297 296 296 295 294 294 293
316 315 314 313 312 311 310 310 308 307 306 305 303 301 301 302 303 303 302 302 300 300 300 299 298 297 296 296 296 296 295 294

GFSFLT2_925_thetae_024.txt.gz
Theta_e
326 321 322 321 321 322 323 323 323 323 323 322 322 322 322 322 322 320 318 316 316 316 316 316 315 315 315 315 316 316 320 325
330 331 331 331 328 319 320 322 322 323 322 323 328 329 328 328 328 321 318 316 315 314 313 311 311 311 316 317 315 311 324 325
330 329 328 330 329 326 328 323 330 330 331 329 330 330 330 329 326 325 324 322 321 319 319 318 315 316 319 318 318 320 322 321
331 330 328 326 325 328 328 327 330 331 331 330 330 328 328 326 327 327 325 324 323 322 321 320 320 321 320 319 319 320 319 317
333 333 330 331 326 325 328 328 328 330 331 328 329 327 327 326 325 325 322 323 323 321 321 321 322 321 320 319 318 317 316 316
335 336 333 330 329 327 325 327 327 328 327 328 325 325 325 323 322 321 320 319 319 319 319 319 319 320 320 318 316 314 314 313
331 335 339 333 328 327 326 325 327 327 327 325 325 325 324 322 321 320 319 319 318 318 318 317 318 318 318 317 315 314 312 311
331 334 338 336 329 328 325 326 326 325 323 322 323 324 324 322 320 320 319 319 318 318 318 319 319 319 318 316 316 314 312 311
330 333 336 336 329 326 324 324 322 321 322 321 321 321 320 320 320 319 319 319 319 318 318 318 318 318 318 318 317 314 313 312
330 332 336 337 330 325 322 322 321 320 320 320 320 320 320 319 319 319 318 318 318 319 318 318 318 317 318 318 317 316 314 312
327 330 334 334 329 325 323 322 321 320 320 319 319 318 317 317 317 317 317 317 317 317 318 318 318 318 318 317 317 317 315 313
327 332 332 328 325 323 321 319 319 318 317 317 317 316 316 316 315 314 314 313 313 314 314 314 315 316 317 317 317 316 315 316
327 326 322 321 321 318 316 317 316 316 317 316 316 315 314 312 311 311 311 311 312 311 312 312 313 314 315 316 316 316 317 316
319 318 318 317 317 316 316 316 316 316 315 315 314 313 312 312 311 310 309 309 309 309 310 311 312 312 314 314 313 314 314 314
318 317 317 316 314 315 315 315 315 315 315 314 314 313 311 309 310 308 307 307 308 307 308 308 311 310 311 312 311 311 311 312
317 316 316 315 315 314 314 315 315 314 313 311 311 309 308 306 305 305 305 306 306 307 308 308 306 306 306 307 303 304 308 309
317 316 316 315 315 315 314 313 312 311 310 310 308 308 306 305 304 304 304 305 305 307 305 303 302 301 301 300 299 299 302 301
317 316 316 315 314 313 312 311 310 310 310 308 307 306 304 303 302 303 303 305 305 304 302 300 300 299 299 298 297 296 296 295
317 316 316 315 313 313 312 311 311 309 308 306 304 303 302 301 302 303 304 303 302 301 300 300 298 298 296 296 295 295 294 293
315 315 315 313 312 312 311 309 308 307 305 303 301 301 301 301 303 303 302 301 300 299 298 299 298 298 297 297 296 296 296 295

GFSFLT2_925_thetae_027.txt.gz
Theta_e
319 325 324 317 317 320 322 322 322 321 320 320 325 324 326 323 322 319 316 314 313 312 311 310 309 310 312 317 316 310 321 324
329 329 329 326 316 315 317 320 323 326 325 329 329 329 328 325 324 324 323 322 321 317 319 319 316 314 315 318 317 318 320 323
330 331 328 328 326 326 324 329 329 330 329 330 328 330 328 326 326 326 325 323 323 321 320 320 319 320 320 320 318 319 320 319
330 329 327 329 327 328 326 329 329 330 329 330 329 328 327 327 327 326 321 322 323 321 320 320 320 321 320 320 318 318 317 316
330 328 328 328 327 328 328 329 329 330 330 327 326 328 326 324 323 321 320 320 319 319 319 319 320 319 319 319 318 316 315 315
331 325 329 329 328 325 327 329 330 331 328 327 325 325 324 322 321 319 320 318 318 318 320 318 317 318 318 319 319 317 314 313
332 331 324 324 325 326 324 326 326 326 327 325 322 324 323 322 321 320 319 319 319 318 317 317 317 318 318 317 317 316 315 314
335 335 334 333 327 326 325 325 326 325 324 323 319 322 323 321 320 319 319 319 319 319 318 317 318 319 319 319 318 317 316 315
336 336 331 330 328 326 323 326 324 323 322 321 320 320 320 319 319 319 319 318 318 318 317 318 318 317 318 317 317 318 317 315
335 334 329 328 327 326 322 322 320 320 320 320 320 320 320 318 317 317 316 316 316 315 316 317 317 318 318 318 318 317 317 317
329 332 332 330 326 324 322 322 321 319 320 319 320 317 316 316 316 315 313 313 313 313 313 314 314 313 314 315 315 315 315 316
330 328 326 325 324 323 321 321 320 319 318 317 316 315 315 315 314 311 311 311 310 310 309 309 309 309 311 312 312 312 314 315
319 320 317 317 316 316 316 316 315 315 316 316 314 314 312 312 311 311 310 309 309 308 307 308 308 308 309 311 312 312 312 313
317 317 317 315 315 316 315 315 315 316 315 314 313 311 309 308 307 306 306 306 306 307 307 306 309 309 308 309 309 309 310 310
316 316 315 314 314 314 314 314 314 313 312 310 309 308 307 305 304 304 304 304 306 306 307 308 305 304 303 304 304 307 303 307
316 316 316 315 315 315 314 314 312 311 310 309 308 307 305 305 303 302 302 303 303 305 306 306 305 300 299 299 299 300 300 301
316 316 315 315 314 314 313 312 310 310 309 308 306 306 305 302 301 300 301 303 304 305 304 302 301 300 298 298 297 297 299 297
317 316 316 314 313 313 312 311 311 309 307 306 304 303 301 300 300 302 303 303 303 302 301 300 299 298 297 297 296 295 294 294
316 316 315 313 312 311 310 309 307 306 304 302 301 301 299 299 302 301 301 301 300 300 299 298 298 298 298 297 296 295 294 293
314 314 313 311 310 309 308 306 305 304 302 301 300 299 299 300 299 300 300 299 298 298 298 296 297 296 297 297 297 296 296 295

GFSFLT2_925_thetae_030.txt.gz
Theta_e
318 317 316 314 317 319 320 320 320 319 319 325 326 326 324 323 323 321 319 318 317 316 318 318 316 313 314 318 317 317 318 321
325 324 321 314 313 315 317 318 321 327 328 328 327 326 325 325 325 324 322 322 321 321 319 319 319 319 319 318 318 318 319 319
328 327 325 323 317 322 326 328 327 328 329 328 328 327 326 326 326 324 322 322 322 320 319 320 320 319 319 319 318 317 317 317
328 326 327 326 325 324 328 328 328 328 329 329 327 328 327 326 326 323 321 321 320 319 319 319 319 319 319 319 319 318 316 314
328 325 327 327 327 327 327 328 329 329 328 327 328 327 327 325 324 320 319 318 318 318 318 319 317 317 317 318 319 319 318 315
328 325 329 327 326 327 328 328 329 330 328 327 326 328 323 322 321 319 319 319 319 318 318 317 317 317 318 318 317 317 317 316
327 327 329 327 325 326 327 328 329 330 327 326 323 324 323 321 321 320 320 319 319 319 318 318 317 317 318 318 318 318 318 317
328 325 327 325 326 325 324 327 328 326 327 324 320 322 322 320 321 319 318 319 318 318 317 316 316 317 317 317 318 317 317 318
331 329 331 329 327 326 324 325 325 325 325 323 320 320 319 320 318 317 317 317 316 315 314 314 314 314 315 316 316 317 317 317
333 333 329 327 325 326 324 324 323 321 322 321 321 321 320 319 318 316 315 312 312 312 311 311 310 310 309 309 310 311 312 313
335 332 329 323 326 326 322 321 320 319 319 320 319 318 316 316 315 312 311 311 310 310 309 308 307 306 306 308 309 310 310 310
331 331 328 327 325 321 320 319 316 317 316 315 315 314 312 311 310 310 309 309 308 307 307 306 306 305 305 305 307 307 307 309
317 317 316 318 316 316 315 315 314 314 313 312 311 309 308 307 305 305 305 304 305 306 306 305 305 306 306 306 307 307 308 309
315 314 314 315 314 314 314 314 313 311 310 309 308 307 306 305 304 303 302 302 302 303 304 305 306 306 303 304 305 304 305 303
315 315 315 315 314 314 314 313 313 311 309 308 307 307 306 305 303 300 299 299 302 302 303 305 305 304 301 300 301 301 298 301
316 315 315 314 314 314 313 312 311 310 309 308 308 307 307 305 304 300 299 301 303 304 304 304 302 300 299 298 298 298 298 297
315 315 315 314 313 313 312 311 310 309 307 307 306 304 302 300 298 300 301 302 303 303 301 300 299 298 297 297 296 295 296 295
316 315 313 313 312 312 311 310 309 308 305 303 302 300 299 299 300 300 299 299 300 300 299 299 298 297 297 297 296 295 294 294
315 314 312 311 310 309 308 307 306 305 303 302 300 299 299 299 299 299 299 299 299 299 298 297 297 296 296 296 297 296 296 294
314 311 310 309 308 307 305 304 302 302 301 300 300 299 299 298 298 298 298 298 298 297 296 296 296 295 295 295 296 296 295 295

GFSFLT2_925_thetae_033.txt.gz
Theta_e
318 317 317 317 318 319 320 319 319 318 319 322 324 322 322 323 322 321 320 320 319 319 319 318 318 318 318 318 318 317 319 319
317 314 314 318 319 318 317 316 317 319 325 326 325 325 325 324 324 321 321 321 320 318 318 318 318 318 318 318 318 316 316 316
322 318 314 315 314 317 320 322 326 327 327 327 327 326 325 325 325 323 321 321 320 319 319 319 318 319 318 318 318 318 317 315
324 322 321 316 323 325 326 326 327 328 328 328 326 327 326 326 325 324 322 321 320 319 319 319 319 318 317 317 317 317 317 316
326 325 323 324 323 327 327 328 328 328 328 327 327 327 327 326 324 322 321 319 318 319 318 319 317 317 317 317 317 317 317 317
327 326 325 326 326 326 327 327 329 328 328 327 325 326 326 323 322 319 319 319 319 319 318 317 317 317 317 318 318 318 318 318
327 327 327 326 327 327 327 327 328 329 329 327 325 326 323 322 321 320 319 318 318 318 317 316 315 314 314 315 316 317 317 317
328 327 328 326 326 326 327 327 328 329 329 326 324 324 323 320 320 319 318 318 317 315 314 313 312 311 311 311 311 311 311 312
328 328 327 325 325 325 325 326 327 328 327 325 323 322 321 321 319 318 316 314 312 311 311 310 310 308 307 306 305 305 307 308
326 328 324 327 328 325 323 324 323 324 326 323 322 321 319 318 315 313 311 310 310 310 309 308 306 305 304 304 303 302 303 306
329 329 327 326 326 323 320 319 319 318 319 318 316 315 313 312 310 309 308 308 307 306 306 305 305 304 304 303 303 302 304 307
330 328 327 323 319 316 316 315 314 314 313 313 312 310 309 308 307 306 306 305 304 303 304 303 304 305 304 304 304 304 306 306
324 324 325 322 316 316 314 312 312 312 311 311 311 310 309 308 307 306 304 303 300 300 301 301 303 304 305 304 303 305 301 302
315 315 315 315 314 314 314 313 311 311 310 310 309 308 307 306 305 305 304 301 300 301 303 304 305 304 302 301 299 300 301 298
314 314 314 314 314 314 313 312 311 310 309 307 306 305 304 303 302 300 299 299 302 303 303 303 303 301 300 298 297 297 297 298
315 314 314 314 314 314 313 313 311 309 307 306 305 304 303 301 299 298 298 299 300 300 301 301 300 299 298 298 297 297 294 294
314 314 314 314 313 313 312 311 310 308 307 306 304 302 301 299 299 299 299 298 298 299 300 299 298 298 297 297 296 296 294 294
314 314 313 312 312 312 311 310 309 307 305 304 303 301 300 299 299 299 298 298 298 298 299 298 297 296 296 296 295 295 294 293
314 313 312 311 310 309 309 308 306 305 303 302 301 300 300 299 299 298 298 297 297 298 297 296 296 296 295 295 295 295 295 295
312 311 310 309 308 307 305 303 302 302 302 301 300 300 300 299 296 297 296 296 297 296 296 295 294 293 293 293 293 293 293 293

GFSFLT2_925_thetae_036.txt.gz
Theta_e
322 321 319 320 319 319 320 320 320 318 318 321 320 321 322 321 320 320 320 319 317 317 317 317 317 317 317 318 317 316 315 315
317 317 317 317 318 319 319 319 319 319 323 324 323 323 323 323 321 320 321 320 319 318 318 318 317 317 317 317 317 317 316 316
316 316 317 317 318 318 319 318 319 324 325 325 325 325 325 324 323 322 321 321 320 319 319 319 318 317 316 316 316 317 317 316
318 316 315 315 316 317 320 322 326 327 326 326 326 326 325 325 325 323 321 319 319 318 318 318 318 316 316 317 318 318 317 317
321 318 315 317 320 323 324 325 327 327 328 327 326 326 326 325 324 323 320 319 318 318 318 317 317 316 316 316 317 317 317 317
324 321 320 319 324 325 326 327 327 327 327 327 325 326 326 324 322 320 319 318 318 318 318 316 315 314 312 312 312 313 315 316
325 324 322 322 322 325 326 327 328 328 328 327 326 324 325 322 320 320 318 318 317 316 315 313 311 311 310 309 308 308 308 309
327 325 325 324 325 326 325 325 327 328 329 329 326 324 322 321 320 318 316 314 312 311 310 310 309 308 307 305 304 303 302 302
327 327 327 326 324 324 324 325 326 327 328 327 323 322 321 319 317 315 312 310 310 310 309 307 306 305 305 304 303 302 301 302
327 327 326 327 326 325 321 324 322 323 324 322 320 319 317 315 313 311 309 309 308 307 306 305 304 303 303 302 302 301 302 306
327 327 325 326 323 321 318 318 318 317 317 316 314 313 312 312 310 308 307 306 305 304 303 301 301 301 302 301 301 300 304 303
328 327 325 321 319 314 314 314 314 314 314 312 312 311 310 308 308 306 306 305 305 303 301 300 302 304 303 303 301 302 301 300
328 327 322 315 314 313 313 313 313 312 311 310 309 308 308 307 306 305 304 302 300 300 301 302 304 303 302 299 300 302 298 299
320 318 315 315 314 313 313 312 311 310 309 308 307 307 306 305 304 303 299 297 296 299 301 302 302 300 299 298 297 298 299 297
314 314 314 314 314 314 313 312 310 309 308 307 306 305 305 304 302 299 297 297 297 297 298 300 300 299 298 298 296 295 295 296
314 314 314 314 314 313 312 312 311 309 308 306 305 305 303 302 299 298 298 298 297 297 297 298 299 298 297 297 297 296 294 294
314 314 314 313 313 313 312 312 310 308 306 306 305 303 301 300 299 299 299 298 298 298 298 299 298 297 297 296 296 295 295 294
313 313 313 313 312 312 311 310 309 307 306 305 303 300 299 299 299 299 298 297 297 297 298 298 297 296 295 295 295 294 294 294
312 312 312 311 310 310 309 308 307 306 304 303 301 300 299 299 299 299 296 296 296 297 297 296 296 295 294 293 294 293 293 293
312 312 310 309 308 307 306 305 304 303 302 301 300 300 299 299 299 298 296 296 295 295 295 294 294 293 293 292 292 292 292 291

GFSFLT2_925_thetae_039.txt.gz
Theta_e
335 330 326 324 324 323 322 322 321 318 317 319 319 321 320 319 319 319 318 318 317 317 317 317 317 317 316 316 316 315 316 316
325 323 323 321 322 321 321 320 319 319 321 321 322 322 322 320 320 320 320 320 318 318 318 317 317 316 316 316 316 316 317 318
321 320 318 319 319 320 320 319 318 323 324 323 323 323 323 323 321 320 320 319 318 318 318 318 318 316 315 315 316 317 317 318
319 318 318 318 319 319 319 319 320 325 325 325 325 324 325 324 323 321 320 318 318 318 318 318 317 317 315 314 315 315 315 316
318 316 318 318 319 320 319 323 324 326 326 326 325 326 326 325 324 323 320 318 318 318 318 317 316 314 312 311 311 311 312 313
319 318 318 319 320 321 323 324 326 326 327 327 326 326 326 326 324 320 319 318 318 317 316 314 312 310 309 307 306 306 307 307
322 320 319 320 322 323 324 325 326 327 327 327 327 326 326 322 320 319 318 316 315 313 311 310 310 309 307 306 305 304 303 305
324 324 323 322 323 325 325 325 325 326 327 327 325 324 322 320 319 317 314 312 311 310 309 309 308 307 307 305 305 305 305 303
325 325 326 325 323 323 323 324 324 325 326 325 322 322 321 319 316 313 311 310 308 307 306 305 306 305 305 305 305 305 305 304
326 326 325 323 322 320 320 323 322 322 322 322 320 319 317 314 312 309 307 306 306 306 305 305 305 304 305 305 305 304 306 303
325 325 325 324 321 321 320 319 318 318 315 314 312 311 309 309 307 306 306 306 305 303 303 302 303 304 303 303 303 303 304 301
325 325 324 323 320 321 317 314 312 311 311 310 309 308 307 307 307 306 305 303 301 299 301 302 303 304 301 302 300 302 302 300
326 326 326 324 320 314 313 312 310 310 310 309 308 307 307 307 306 304 301 298 296 298 301 302 301 301 301 299 299 303 301 299
327 326 323 320 316 313 312 311 309 309 308 307 306 306 306 305 303 300 297 299 299 299 300 299 300 300 299 299 299 298 300 299
322 318 318 316 314 313 311 310 308 308 306 306 306 306 304 302 299 298 297 298 299 299 299 299 299 299 299 298 299 298 298 297
314 315 314 313 312 312 311 311 312 309 307 306 306 304 301 299 299 298 298 297 298 298 298 299 299 298 297 297 298 297 296 296
312 312 312 312 312 312 312 311 310 308 307 306 304 301 300 299 299 299 299 298 298 298 298 299 298 298 297 296 296 295 295 295
313 313 313 313 312 312 311 310 309 308 307 304 302 300 300 299 299 299 299 298 298 298 298 298 298 297 296 295 294 294 294 293
313 313 312 311 311 310 309 307 306 305 303 302 301 300 300 299 299 299 299 298 297 297 298 297 296 296 295 294 294 293 293 293
311 311 310 310 309 307 305 304 303 302 302 301 300 300 299 299 299 298 298 296 297 296 296 295 294 294 294 293 293 293 293 292

GFSFLT2_925_thetae_042.txt.gz
Theta_e
339 338 336 333 330 329 328 326 324 319 318 318 319 318 318 319 318 318 317 318 318 318 317 317 316 316 316 316 315 317 319 319
334 333 333 332 332 326 325 323 320 319 320 321 321 320 320 320 321 320 319 319 319 318 318 318 316 315 315 314 315 318 319 318
331 330 330 329 329 329 324 322 320 322 323 322 324 327 326 326 321 320 320 319 318 318 318 318 317 318 316 314 316 317 317 317
327 327 327 327 325 327 328 325 327 328 328 328 328 329 328 327 324 321 319 318 317 318 317 318 319 319 317 315 315 316 316 316
324 326 327 326 326 326 325 327 328 330 330 330 330 330 330 328 328 326 324 319 321 321 321 320 319 317 315 314 314 313 313 312
324 325 326 326 325 326 328 328 329 330 331 331 331 330 330 330 327 324 322 322 322 320 319 317 316 314 313 313 312 312 312 312
325 324 325 326 327 328 329 329 330 331 331 332 331 329 328 326 324 322 321 319 318 317 316 315 314 313 313 312 312 311 311 310
328 327 326 327 327 327 327 326 327 329 330 327 327 325 325 324 322 319 317 316 315 315 313 313 312 312 311 311 310 310 310 309
329 329 327 326 325 323 322 322 323 324 325 325 323 324 323 321 319 316 314 312 312 311 311 311 310 310 309 309 308 308 308 308
329 327 326 325 321 320 319 320 321 321 322 322 320 317 316 314 313 311 311 310 310 309 309 308 308 307 307 306 305 305 304 306
328 327 326 321 318 319 319 319 318 316 314 314 311 310 309 309 310 310 310 309 308 306 305 304 303 303 303 301 302 302 301 303
328 328 323 322 323 321 321 317 314 312 311 310 309 309 309 310 310 309 307 305 303 303 302 302 302 303 302 301 302 301 302 303
328 325 324 326 323 319 315 312 312 311 311 310 309 309 309 309 307 305 303 302 303 302 301 301 301 302 302 300 300 301 304 303
328 328 328 325 322 318 317 315 314 312 310 309 309 308 307 305 304 303 302 302 302 302 301 301 300 300 301 300 301 300 299 301
328 326 323 320 318 316 315 314 312 311 310 309 308 307 305 304 303 302 302 302 301 301 301 301 300 299 300 300 302 300 299 298
320 319 319 318 317 315 315 315 315 314 312 310 309 305 304 303 303 303 302 302 302 301 300 300 300 299 298 298 298 298 298 298
318 317 316 316 316 316 316 315 314 312 310 310 307 305 304 303 302 303 302 302 301 301 301 300 299 299 298 297 296 296 295 296
317 316 316 315 316 315 315 314 312 310 309 307 305 304 303 302 302 302 301 301 301 300 300 299 298 297 297 296 295 294 294 294
317 316 316 315 315 313 312 310 308 306 305 304 303 302 302 302 302 301 300 299 299 299 298 297 297 297 296 296 295 294 294 293
316 316 315 313 312 310 308 306 305 304 304 304 303 303 302 302 301 300 298 298 298 298 298 297 297 296 296 295 294 293 293 292

GFSFLT2_925_thetae_045.txt.gz
Theta_e
339 338 337 336 335 332 331 328 325 321 320 318 316 316 318 317 317 317 317 317 317 317 317 316 315 315 314 313 317 319 321 320
335 335 334 335 332 330 327 326 322 320 319 320 319 319 319 320 320 319 319 319 318 318 318 317 316 316 316 313 317 319 319 319
331 331 330 331 331 329 325 323 320 321 322 322 326 326 325 327 325 320 320 319 318 317 317 317 317 320 319 315 317 318 318 318
329 329 329 327 326 327 327 325 326 328 328 328 329 329 329 328 323 319 319 318 318 318 318 319 320 320 319 317 317 317 316 316
326 328 327 325 326 326 325 327 329 330 330 330 331 329 329 328 328 328 326 322 323 322 322 321 321 319 318 317 316 316 316 316
325 326 327 326 325 325 327 328 329 329 330 332 331 331 331 330 327 326 324 323 324 322 321 320 319 318 317 317 316 316 315 315
324 325 326 328 329 329 330 330 330 331 331 332 333 331 331 329 327 325 324 322 321 320 319 318 317 317 316 316 315 314 314 313
326 327 328 330 331 331 330 329 330 330 332 329 328 327 326 328 326 324 321 319 318 317 316 315 314 314 314 314 313 312 312 311
329 329 329 330 327 325 325 324 325 326 327 326 327 327 327 325 322 319 316 314 313 312 312 311 312 311 310 310 309 308 307 308
330 330 330 328 325 322 321 320 320 321 324 323 321 321 319 318 316 314 312 312 311 311 309 307 306 306 306 306 304 303 304 305
331 330 329 324 321 321 321 320 317 319 317 316 314 313 313 313 313 313 312 310 308 307 305 305 304 304 304 304 303 303 304 303
331 330 327 323 323 324 320 318 320 314 312 312 312 312 313 313 312 311 308 307 307 306 305 304 303 303 303 303 303 302 302 303
330 328 325 327 327 323 322 319 316 314 314 313 313 312 312 311 310 308 307 305 305 304 304 303 303 302 302 302 302 302 302 303
330 328 328 329 326 323 320 317 316 315 314 313 313 312 310 308 308 307 306 305 304 304 304 303 302 301 301 301 303 301 301 301
330 330 327 324 320 318 318 317 316 314 314 313 312 310 308 307 307 306 305 304 303 303 303 302 301 301 301 300 302 302 300 299
329 324 321 319 318 317 317 316 316 316 315 314 312 309 308 306 305 304 304 304 303 303 302 302 301 301 300 300 299 299 300 299
321 320 319 319 318 317 318 317 316 315 313 313 311 309 307 305 304 304 303 303 302 302 301 301 301 300 299 299 298 298 297 297
320 320 319 318 318 318 318 317 314 313 312 311 309 307 305 304 304 303 303 302 301 300 299 299 299 299 299 298 298 297 296 296
320 319 318 318 318 318 316 314 312 310 309 307 305 304 304 303 303 302 301 300 299 298 298 298 299 299 298 298 297 296 295 295
319 319 318 318 317 315 313 310 308 307 306 305 305 304 303 303 302 300 298 297 297 297 297 298 298 298 298 297 296 295 295 294

GFSFLT2_925_thetae_048.txt.gz
Theta_e
336 336 335 335 335 332 330 326 322 318 318 316 315 316 316 316 315 316 316 316 316 316 316 316 315 316 315 313 318 318 319 320
337 336 335 334 332 330 327 323 318 318 317 317 318 318 318 319 318 317 317 317 317 317 317 317 316 319 318 317 318 318 317 318
335 335 333 328 328 327 324 319 318 319 320 321 323 325 324 326 321 317 317 316 316 317 317 317 318 320 319 317 318 317 317 317
332 332 330 329 329 326 321 319 324 326 322 328 330 329 328 328 321 318 320 320 319 321 322 322 321 320 319 318 317 317 317 316
329 329 329 328 325 328 325 328 330 330 330 330 329 329 327 328 328 327 327 323 324 323 323 322 320 319 318 317 317 316 316 316
328 327 327 326 326 325 326 329 330 329 330 331 330 330 329 329 328 326 325 323 322 322 321 319 319 318 318 316 316 315 315 314
327 327 326 325 328 327 330 330 330 329 330 328 330 330 331 325 327 326 323 321 319 318 317 316 315 314 314 314 314 313 313 312
326 327 328 331 329 329 329 329 328 329 330 328 328 328 327 328 326 322 319 318 317 314 312 312 311 311 310 309 308 309 307 306
327 328 332 330 327 326 326 324 322 322 323 326 327 327 326 323 321 318 316 314 312 311 309 308 307 306 306 306 306 305 303 303
329 331 329 326 324 319 318 318 318 319 322 322 323 322 318 317 316 312 312 312 310 308 306 306 305 304 304 304 305 304 303 304
330 331 327 325 321 320 319 319 319 319 318 318 316 316 314 313 313 312 310 309 308 306 306 305 304 304 303 303 303 303 304 302
331 331 328 324 321 322 322 320 319 318 315 313 312 312 314 314 313 310 308 307 306 305 305 304 304 303 303 303 302 303 301 302
331 329 327 323 327 325 321 319 318 315 314 314 314 314 313 311 310 309 307 306 305 305 304 304 304 302 302 302 302 301 302 301
330 329 327 327 328 324 323 319 316 315 315 314 314 313 311 309 308 307 306 305 304 304 303 304 303 303 302 302 301 301 302 300
330 329 327 329 326 323 320 318 316 315 315 314 313 311 309 308 307 306 305 304 304 304 303 303 303 302 302 302 301 299 300 299
330 329 329 327 320 319 318 317 316 316 315 315 313 310 309 307 306 305 304 304 303 303 303 302 302 302 301 300 300 299 298 298
331 330 324 320 319 318 317 318 316 316 314 314 313 311 310 307 305 305 304 303 303 302 301 300 300 300 300 300 299 299 298 298
324 322 320 319 319 318 318 318 316 314 313 313 311 310 307 305 305 304 303 302 302 300 299 299 299 299 299 299 299 298 297 297
321 321 320 319 319 319 318 317 315 312 310 309 306 305 305 304 304 303 302 300 298 298 297 298 298 299 299 298 298 297 297 296
321 320 319 319 319 318 316 314 312 310 307 306 306 305 305 304 303 300 298 298 297 297 297 297 297 298 298 298 297 296 296 295

GFSFLT2_925_thetae_051.txt.gz
Theta_e
333 334 334 333 332 328 325 321 317 317 314 313 313 315 315 314 314 314 313 314 315 315 315 315 316 319 317 317 318 317 317 320
333 333 334 333 330 326 323 318 317 315 315 316 316 315 315 314 314 314 314 314 315 316 316 316 318 320 317 318 317 317 317 317
332 334 333 330 328 324 320 316 316 318 317 320 322 325 323 319 316 315 315 315 317 320 321 320 321 319 319 317 317 317 317 316
331 331 330 327 323 320 317 317 319 323 326 327 327 326 327 326 319 319 322 318 322 322 321 321 320 319 318 317 317 316 316 316
332 331 325 321 320 317 323 327 324 325 329 330 329 329 326 326 327 326 326 323 324 323 321 319 318 317 317 316 315 315 315 313
332 330 327 325 324 326 328 329 330 329 331 330 331 330 329 327 327 327 323 322 318 318 318 318 317 316 314 312 311 310 312 311
327 327 326 328 328 326 328 331 330 331 330 330 329 329 327 327 326 321 320 320 319 318 316 313 311 310 309 308 307 306 305 304
326 325 324 327 330 330 330 330 329 328 328 328 328 328 326 327 322 318 318 317 315 313 311 308 307 306 305 305 305 305 305 304
326 328 330 330 329 329 328 328 328 327 325 325 326 327 326 324 322 317 314 312 311 309 307 306 304 304 303 303 304 304 303 303
326 331 329 328 328 327 326 323 322 321 322 324 325 321 321 320 317 312 312 310 308 307 306 304 304 303 303 303 302 302 303 302
331 330 329 328 326 322 319 319 318 319 320 320 319 317 314 312 312 310 309 308 307 306 305 304 304 303 302 302 302 301 301 301
331 328 327 325 319 319 319 318 318 317 316 314 312 312 313 313 311 309 307 306 305 305 304 304 303 303 302 301 300 301 301 300
330 327 326 322 320 322 322 320 316 314 312 312 313 313 313 310 309 308 306 305 304 304 303 303 303 303 302 301 301 301 300 300
329 328 327 325 322 324 322 318 315 314 314 314 313 313 311 310 309 307 306 305 304 303 303 303 302 301 302 302 298 300 300 299
329 329 328 326 326 325 321 317 315 314 314 314 313 312 309 308 307 306 305 304 304 303 303 302 302 301 300 301 297 297 298 298
329 329 328 326 328 323 320 317 316 315 314 314 313 310 309 308 307 305 304 304 303 303 302 301 300 300 299 300 300 299 296 297
329 328 327 327 328 322 319 316 316 315 315 314 312 310 309 309 308 305 304 303 302 301 300 299 298 298 299 299 299 299 298 296
329 328 328 327 320 319 317 317 316 314 315 313 313 311 309 308 305 304 303 302 301 299 298 297 297 297 297 299 299 298 298 297
328 330 326 319 318 318 317 316 315 314 313 311 309 305 305 304 303 303 301 300 298 297 297 296 296 296 297 299 298 298 297 297
326 321 319 319 318 319 317 315 312 310 308 307 306 305 304 303 301 299 298 297 297 296 296 296 296 297 297 296 296 296 296 296

GFSFLT2_925_thetae_054.txt.gz
Theta_e
331 332 331 332 329 326 322 318 317 313 311 311 314 313 312 312 312 313 313 314 315 315 315 318 320 317 317 317 317 316 316 316
326 325 331 331 328 323 319 316 315 312 313 314 314 312 313 313 313 313 314 315 317 317 318 321 320 319 318 317 317 317 316 315
324 329 330 329 326 321 317 316 314 315 315 315 316 318 315 315 315 315 315 318 320 320 321 320 319 318 318 317 317 316 315 315
328 330 330 329 325 319 316 316 316 317 321 324 326 324 322 319 318 318 318 319 320 320 320 319 318 318 317 315 315 315 315 313
329 331 330 325 321 317 317 318 321 324 326 326 327 326 326 325 323 322 322 322 323 321 318 317 316 315 314 311 311 310 311 308
331 330 326 322 318 318 320 320 325 328 327 327 328 326 326 327 326 325 325 321 319 317 317 315 313 311 310 308 306 306 305 304
330 326 322 320 320 326 327 326 327 330 330 330 329 328 327 326 324 320 319 317 317 315 313 311 310 308 306 304 303 304 304 304
330 327 325 324 325 326 328 329 330 331 330 329 329 328 326 325 320 318 317 315 313 312 309 307 305 303 302 302 303 302 302 302
328 329 326 327 326 327 330 330 329 328 328 327 327 327 325 321 317 315 313 313 311 309 307 305 303 302 302 302 302 301 302 301
325 326 329 328 329 330 329 328 327 326 324 325 326 325 323 321 318 314 311 309 308 307 305 303 303 302 302 302 301 300 300 301
328 328 329 328 328 327 326 325 322 321 323 324 322 320 318 314 311 309 308 307 306 305 304 304 303 302 302 301 301 300 301 300
328 329 328 327 325 323 320 318 318 319 320 318 317 314 312 311 309 308 307 306 305 304 303 302 303 302 301 301 300 301 300 299
329 328 327 326 322 319 318 318 318 317 316 314 312 313 313 310 308 307 306 306 304 303 303 303 302 301 301 300 301 300 299 299
329 329 328 324 320 319 321 321 317 315 312 312 313 313 311 309 308 307 306 305 303 303 302 302 301 301 300 299 297 298 299 298
328 327 327 324 320 321 322 320 315 313 313 313 313 312 310 309 309 308 306 304 303 303 302 301 300 299 299 299 296 296 297 298
328 327 327 325 322 323 321 316 313 313 314 313 312 312 309 308 307 306 304 304 303 302 301 300 298 298 298 298 299 299 295 294
328 328 328 327 324 325 322 317 314 314 314 313 313 311 309 307 306 304 304 303 302 301 299 298 297 296 297 297 298 298 298 295
329 329 328 327 325 328 322 316 315 315 314 313 313 310 308 307 305 304 303 302 300 299 297 296 296 296 296 296 297 298 297 297
329 328 328 326 326 328 322 317 316 315 314 313 312 309 307 304 303 303 301 298 297 296 296 296 296 296 296 297 298 297 297 297
328 328 328 328 326 323 320 317 315 314 314 313 308 304 303 301 299 300 298 296 296 296 295 295 295 296 296 296 295 295 295 295

GFSFLT2_925_thetae_060.txt.gz
Theta_e
333 331 330 330 324 324 319 315 316 313 317 317 315 313 313 314 314 315 314 317 319 318 317 317 317 316 316 316 315 315 314 314
331 332 329 325 325 322 321 315 312 312 315 315 313 313 314 315 315 315 316 318 320 319 318 317 317 316 316 315 315 314 313 313
328 324 323 323 321 323 320 315 312 314 316 314 313 314 314 316 316 317 318 320 320 319 318 318 316 315 314 314 314 313 312 312
322 320 319 321 324 321 317 314 313 315 315 314 314 315 315 316 317 318 319 321 320 319 318 317 316 314 310 309 308 306 306 308
320 320 315 323 328 323 320 315 313 316 315 315 316 316 317 317 317 318 319 320 318 317 316 315 314 312 309 307 305 305 304 304
319 319 324 328 326 320 318 315 316 316 316 319 320 320 319 320 320 320 321 319 317 316 314 310 309 306 304 303 303 303 302 302
321 324 327 328 325 320 317 316 317 318 322 324 325 325 324 324 324 321 319 316 315 312 309 306 304 302 301 301 301 301 300 300
323 324 328 328 323 319 318 317 319 321 323 326 327 325 326 325 322 318 315 314 311 309 306 302 301 300 300 300 300 299 299 300
324 327 329 328 321 318 319 321 324 327 328 328 328 327 326 323 319 316 313 311 309 306 303 302 300 300 300 300 299 299 299 300
328 329 330 326 322 318 320 322 326 329 329 329 328 326 323 321 318 314 311 309 307 305 303 301 300 300 300 300 298 299 299 299
329 330 330 325 320 321 324 326 328 328 328 327 326 324 321 319 316 312 309 308 305 304 302 301 301 301 300 299 299 299 299 298
329 330 326 324 321 324 325 328 328 327 325 325 325 322 318 316 314 312 308 306 305 303 301 301 301 300 300 298 299 299 299 298
327 329 326 325 325 326 327 327 325 324 323 323 322 320 318 316 311 308 306 306 305 303 301 301 301 300 299 298 299 299 298 298
327 328 328 325 326 327 327 326 323 321 321 319 318 316 312 309 308 307 306 306 304 302 302 301 300 299 298 297 295 297 298 298
326 326 327 326 327 327 325 321 318 317 317 317 315 312 310 309 308 307 306 305 303 302 301 301 299 298 297 296 293 293 295 297
325 325 325 326 326 326 323 319 316 316 317 316 313 312 311 308 307 306 305 303 303 302 301 299 297 296 296 297 297 297 295 294
325 325 325 325 325 324 321 318 317 318 316 313 312 311 310 307 306 305 304 303 302 300 298 297 296 296 295 295 295 296 296 294
324 324 325 324 324 322 320 319 319 318 314 312 312 311 309 307 305 303 302 300 301 298 297 296 295 295 295 295 295 295 295 294
324 324 323 324 323 322 321 320 320 318 314 312 312 310 308 306 304 302 302 304 302 299 297 295 295 294 295 295 295 296 296 296
324 324 324 323 323 322 321 320 322 318 315 313 312 310 307 303 302 303 304 301 299 298 297 295 294 294 295 295 294 294 294 293

GFSFLT2_925_thetae_063.txt.gz
Theta_e
334 334 334 329 321 322 316 313 311 313 316 314 316 317 316 316 318 317 316 316 316 316 316 316 316 316 315 315 315 314 317 318
333 332 325 323 324 320 321 317 313 316 316 314 315 314 315 315 316 318 319 317 317 317 317 316 316 316 315 315 314 313 315 317
330 325 322 322 321 321 319 318 315 314 314 313 314 315 315 317 317 318 318 319 318 317 317 316 315 315 314 313 313 312 313 314
325 325 321 319 318 317 322 317 315 313 313 313 314 315 316 317 318 319 319 317 316 316 314 312 312 310 309 308 307 306 307 312
322 321 322 321 320 322 317 315 316 314 314 314 315 316 317 317 318 319 318 318 316 314 313 312 310 308 306 305 304 304 304 304
319 317 316 317 321 320 318 314 315 315 315 315 315 316 318 317 318 318 318 317 315 315 312 309 307 305 303 301 301 301 302 301
318 317 316 323 326 320 317 314 315 315 315 316 318 318 318 319 319 319 317 315 315 312 310 307 302 301 300 300 299 299 299 300
321 324 325 328 327 321 317 315 316 316 318 321 323 322 322 322 320 319 315 314 311 309 306 303 300 300 300 300 299 299 299 300
323 326 327 328 326 320 317 316 317 319 322 324 326 325 325 323 320 315 313 311 309 307 304 301 300 300 300 298 299 299 299 301
325 325 328 328 326 320 318 317 319 322 324 325 326 326 325 322 317 315 311 308 307 304 302 300 300 302 301 298 299 299 299 299
326 326 327 329 326 320 319 319 323 327 328 328 327 325 324 320 316 312 309 308 306 304 301 300 303 302 301 300 299 300 299 299
327 328 329 329 325 320 320 322 325 328 328 327 326 324 320 317 313 312 309 306 305 303 301 300 302 301 301 300 299 299 299 299
328 329 329 329 324 322 323 326 327 328 326 326 324 320 317 316 313 311 307 306 305 302 301 302 302 300 301 300 300 299 299 299
327 328 329 326 323 320 323 324 326 326 324 323 319 319 318 315 314 309 306 305 304 302 302 302 302 299 300 299 300 300 299 299
326 327 329 327 324 323 325 325 324 321 319 319 319 319 316 313 309 307 306 305 304 303 302 302 302 299 297 298 299 298 297 298
325 326 327 327 324 323 324 323 321 318 318 318 317 314 310 309 308 306 306 305 303 302 301 300 298 299 298 297 297 297 297 297
325 326 325 325 325 324 324 322 320 319 317 317 314 312 310 308 307 306 305 304 303 302 300 298 297 296 297 297 297 297 297 297
325 325 324 323 324 324 324 321 319 317 316 314 312 312 311 309 307 306 304 303 301 300 301 298 295 295 295 296 296 296 296 297
325 324 324 323 323 324 323 322 320 319 317 314 312 310 309 308 306 304 303 302 302 302 298 296 299 295 295 296 296 296 296 296
324 324 324 323 324 324 324 323 320 319 319 316 312 311 310 308 305 304 301 303 302 302 299 300 296 295 294 294 296 295 294 294

GFSFLT2_925_thetae_066.txt.gz
Theta_e
334 334 335 334 331 328 324 322 319 325 323 320 321 320 318 317 318 318 318 317 316 316 317 317 316 315 315 315 314 317 319 318
334 334 330 325 321 322 323 318 324 323 318 318 318 317 317 316 316 316 316 317 317 316 316 316 316 315 315 314 314 316 316 316
333 325 321 318 315 315 323 323 323 321 317 317 317 320 319 320 321 317 317 317 317 317 316 316 316 315 314 312 313 314 314 314
324 322 319 318 320 321 322 324 324 321 320 321 321 321 321 322 320 319 318 317 317 316 315 315 313 313 311 310 309 309 310 311
324 322 320 317 315 313 317 320 323 322 322 320 322 324 322 323 321 319 317 316 313 312 314 314 313 312 310 308 307 306 306 306
322 320 319 317 316 315 314 324 323 322 321 322 323 323 324 324 323 321 318 316 315 315 313 312 310 308 307 306 306 305 304 304
321 320 318 316 314 314 319 322 322 321 321 321 321 323 323 323 322 320 318 316 315 313 312 309 308 307 306 305 304 304 304 305
319 317 316 316 323 324 321 320 322 321 321 322 323 323 324 323 321 318 315 315 314 312 310 309 307 306 305 304 303 303 305 306
317 320 322 324 327 324 321 320 320 319 320 324 326 326 324 322 319 316 315 314 312 309 309 308 306 305 304 303 303 303 304 304
320 324 327 328 328 324 321 321 321 322 325 327 328 327 324 322 319 317 314 312 310 309 309 307 306 305 304 303 303 302 303 302
323 327 329 330 329 325 323 323 323 325 328 328 328 327 323 321 318 316 313 312 311 309 308 307 306 306 305 305 303 303 303 301
326 328 329 329 330 326 323 323 324 328 329 328 325 324 322 321 317 314 313 312 311 309 308 307 307 307 305 305 304 303 303 302
327 328 329 330 330 326 323 324 326 328 329 329 326 324 322 319 317 314 313 312 310 309 308 307 307 306 307 307 305 304 303 302
328 329 331 331 328 325 323 323 325 327 327 326 324 322 320 318 316 314 313 311 310 308 308 308 308 305 306 305 309 306 304 302
329 330 330 330 328 325 324 326 327 327 326 325 323 320 319 315 314 314 312 310 309 309 309 308 308 305 304 303 304 307 302 301
329 330 330 330 328 326 324 325 326 326 326 325 320 318 316 313 313 313 311 310 310 309 308 307 305 304 302 299 299 299 301 301
327 328 330 330 330 328 327 326 327 327 325 323 319 316 313 313 312 311 310 310 309 308 307 305 301 303 301 299 299 300 299 300
329 328 328 329 330 329 329 328 329 326 324 321 316 315 312 311 311 310 310 309 309 307 305 302 302 300 299 298 299 299 299 299
330 330 328 329 329 329 329 329 328 325 323 320 318 315 313 312 311 310 310 309 307 304 303 303 300 299 298 299 298 298 298 297
330 330 329 329 328 328 328 326 325 324 322 320 317 314 314 314 311 310 309 306 304 302 303 302 298 298 299 299 298 297 297 297

GFSFLT2_925_thetae_069.txt.gz
Theta_e
331 331 335 335 332 329 328 327 327 327 326 322 322 323 323 322 322 324 323 319 315 316 317 316 316 316 316 316 315 318 319 319
331 332 333 330 326 324 326 328 327 326 321 321 321 320 320 319 318 319 318 315 316 317 316 316 316 315 316 315 316 316 317 317
332 329 325 323 317 320 327 328 326 323 321 321 320 321 320 321 320 317 316 317 317 316 317 317 315 315 314 312 313 314 315 316
325 323 319 318 315 314 320 328 324 323 322 320 321 321 323 323 318 316 316 316 316 317 317 315 316 315 313 312 311 310 310 312
321 318 318 316 322 323 324 325 323 321 321 322 321 324 323 324 320 318 317 317 316 315 315 317 318 316 314 310 309 308 308 308
322 320 319 318 319 318 317 314 318 321 321 323 325 324 324 323 322 321 319 318 317 318 318 317 314 312 310 309 308 307 306 306
319 318 318 316 317 314 316 320 322 323 322 323 324 324 325 324 323 322 320 320 319 319 316 314 312 311 309 307 307 307 307 307
318 316 315 313 313 315 315 316 315 315 322 323 323 324 325 325 324 323 321 320 319 318 316 314 312 310 308 306 306 306 307 308
318 318 316 316 316 317 319 321 320 321 321 323 324 324 325 325 324 322 320 320 318 317 315 313 312 308 307 306 306 306 307 306
318 316 315 315 319 322 323 321 323 321 321 324 325 327 328 326 323 320 319 319 317 316 315 313 310 309 308 307 306 305 305 304
318 318 321 324 325 324 321 321 321 321 323 327 329 329 328 326 323 322 319 318 316 315 314 312 310 309 309 309 308 307 306 304
322 325 327 328 327 326 323 323 322 323 325 327 329 329 328 326 324 322 319 317 317 315 314 311 311 311 308 308 309 308 307 306
324 327 328 328 328 326 323 322 322 323 327 329 329 329 327 326 323 321 319 318 318 314 312 311 311 310 311 311 310 308 307 306
326 326 328 328 327 325 322 321 322 324 329 329 328 328 326 325 323 320 319 318 316 314 312 311 312 311 311 311 313 310 308 307
327 327 327 328 327 325 323 323 323 325 328 328 328 327 326 325 323 320 319 318 316 314 312 312 312 310 308 309 310 311 307 307
329 328 328 329 328 327 324 323 324 325 327 327 326 326 325 322 321 320 319 317 315 313 312 312 312 312 308 306 306 304 306 307
329 329 330 329 330 328 326 325 325 326 327 327 327 324 322 321 319 319 318 316 313 313 312 312 310 308 306 306 303 304 305 304
329 329 330 330 330 330 329 328 327 326 329 328 326 324 321 318 317 317 316 314 313 313 312 310 306 306 304 302 304 305 304 303
330 329 329 330 331 331 331 330 330 329 329 327 326 322 319 317 316 315 314 313 313 312 310 307 305 304 303 302 302 303 301 301
331 330 330 329 330 332 332 332 331 330 330 327 325 322 320 317 314 313 313 313 312 310 306 304 303 302 302 300 301 301 300 300

GFSFLT2_925_thetae_072.txt.gz
Theta_e
332 327 337 337 336 332 329 324 324 324 325 325 328 331 333 331 331 331 321 315 317 317 316 316 317 317 314 317 317 318 320 320
329 329 332 332 331 330 330 329 328 326 324 326 327 329 329 330 328 323 316 316 317 317 316 317 317 316 315 315 316 316 319 319
330 331 329 328 325 326 328 328 328 326 325 324 324 322 323 325 323 318 315 317 317 316 317 318 317 313 311 312 312 313 317 318
330 328 324 322 321 321 325 328 326 325 322 321 320 323 323 319 318 316 316 317 317 317 318 316 315 315 313 311 310 309 311 313
326 324 321 320 319 319 315 313 321 322 321 322 320 324 320 317 317 317 316 316 317 317 316 317 316 315 313 310 309 308 309 308
319 319 318 316 313 314 316 321 323 320 323 321 325 324 321 317 318 316 317 317 317 318 318 317 316 313 309 308 307 307 307 308
318 319 321 322 322 323 322 322 321 322 323 324 324 323 323 323 322 319 319 318 317 319 318 315 313 310 309 308 307 307 307 311
319 318 320 320 321 318 315 313 314 315 317 322 324 324 324 323 322 322 320 320 320 319 316 315 313 310 308 307 306 307 307 310
318 317 317 316 313 313 313 313 315 316 318 323 323 324 325 326 324 323 322 321 320 319 316 315 313 310 308 307 306 306 307 307
317 316 313 313 313 314 315 319 318 319 321 318 323 324 324 326 324 323 321 321 319 318 316 314 312 309 308 307 306 306 306 305
317 315 313 314 315 316 318 318 317 323 322 323 323 324 325 326 324 322 320 320 318 317 316 314 311 310 310 309 308 307 306 306
318 317 317 317 317 318 321 321 323 323 322 325 324 326 328 326 324 322 321 320 318 316 316 314 311 311 310 309 309 308 307 307
318 319 318 320 322 323 324 324 322 323 324 325 326 326 327 327 325 325 321 319 317 316 316 312 311 311 311 311 311 309 308 307
319 321 326 327 326 326 324 323 323 323 324 327 327 328 328 327 326 324 322 320 318 317 314 312 312 311 311 312 311 310 309 308
324 326 328 328 327 327 324 322 322 322 327 328 327 328 327 327 325 323 321 320 319 316 314 313 313 312 310 310 309 310 307 308
325 327 329 328 328 326 324 323 323 324 327 329 327 327 327 326 325 324 321 320 320 316 314 312 313 312 310 309 307 306 306 305
328 327 327 327 327 328 325 324 323 323 324 329 327 326 326 325 325 323 321 320 319 316 314 312 314 312 309 307 306 305 305 305
330 330 329 328 329 326 328 325 326 326 328 328 327 326 325 324 323 321 320 320 318 316 314 313 312 308 307 307 304 305 306 306
331 331 330 330 331 328 327 330 326 327 328 328 328 326 324 322 322 320 319 319 317 314 314 312 309 307 305 304 303 303 304 302
331 331 331 330 331 332 331 328 331 327 328 328 328 326 324 322 320 319 318 317 315 313 313 311 307 305 304 304 303 302 302 301

GFSFLT2_925_thetae_075.txt.gz
Theta_e
332 333 331 337 337 333 328 324 322 324 329 328 328 329 331 332 329 317 317 317 316 316 317 317 313 317 317 317 317 320 319 314
330 331 330 333 335 332 329 327 327 326 328 331 332 332 331 332 328 316 317 317 316 317 317 317 313 315 315 314 316 319 318 313
329 329 328 326 329 330 329 329 326 327 331 334 333 332 332 331 322 316 317 317 316 318 318 316 312 312 312 312 313 318 316 312
329 330 326 326 325 323 325 328 326 327 328 331 331 331 329 324 318 316 317 316 317 318 317 315 315 312 311 309 309 313 311 309
328 326 326 325 323 321 325 326 324 322 321 322 322 323 323 319 316 316 316 316 318 316 316 316 315 312 310 308 308 309 308 307
322 324 323 322 320 318 318 320 321 322 320 323 323 319 318 316 316 316 316 317 317 316 318 317 315 313 307 307 307 307 308 308
319 319 319 320 320 318 316 314 321 323 322 324 323 317 317 317 316 316 317 317 317 318 318 318 313 309 308 307 306 307 309 310
320 319 319 319 314 312 312 320 322 323 325 324 323 321 318 317 317 317 318 317 318 319 318 316 311 310 307 306 307 307 308 310
320 320 318 317 318 320 322 321 322 322 322 324 324 325 321 321 321 320 319 319 319 319 317 314 312 310 308 306 306 306 307 307
320 321 321 321 318 317 318 317 315 315 318 321 323 324 324 325 323 322 322 320 320 319 316 315 312 309 308 306 306 306 306 305
318 318 320 319 317 317 316 313 313 315 314 316 323 323 324 325 325 324 321 321 320 318 316 315 313 309 308 307 307 306 306 306
316 316 316 315 314 313 313 313 312 313 315 317 319 320 324 324 325 324 322 320 319 318 317 315 313 310 309 309 309 308 307 307
316 314 313 313 314 315 317 318 318 316 319 322 322 321 324 324 326 324 322 320 320 318 316 315 313 310 311 309 309 309 308 307
316 315 314 315 315 317 319 319 320 320 323 323 323 324 323 325 326 325 322 320 319 318 316 315 312 311 311 311 308 309 309 308
317 316 316 316 317 317 319 322 323 323 323 325 325 325 324 325 325 325 325 322 320 317 316 315 311 311 311 311 306 307 307 309
317 317 317 317 321 324 324 323 322 321 321 322 325 326 325 326 326 326 325 323 320 319 318 316 313 312 311 310 309 307 304 305
318 318 321 326 326 326 325 323 322 322 322 324 326 326 326 327 326 325 325 322 320 320 317 315 313 313 311 309 307 306 305 304
321 322 324 327 327 326 327 323 322 322 323 326 327 327 326 327 326 325 325 323 321 320 319 316 314 313 312 309 306 305 304 304
321 323 326 328 328 328 328 325 323 322 322 327 328 328 327 326 325 325 325 323 321 320 318 315 314 312 309 307 306 305 305 304
325 326 327 327 328 328 327 326 323 324 324 326 327 328 327 325 325 325 323 322 320 319 316 314 311 310 308 306 305 304 304 303

GFSFLT2_925_thetae_078.txt.gz
Theta_e
327 330 328 328 335 333 327 326 323 323 331 333 333 330 325 321 319 316 315 316 316 315 312 316 316 313 317 320 320 316 311 310
332 327 326 327 336 332 328 330 329 329 330 332 333 331 326 318 317 317 316 316 317 316 313 316 313 312 315 320 319 316 312 311
330 327 326 326 331 331 328 331 329 330 331 331 334 332 327 317 317 317 316 317 318 317 313 314 312 310 314 319 318 314 312 310
329 328 324 324 324 323 321 329 333 333 333 332 332 332 327 317 317 317 316 318 318 315 313 312 311 310 309 315 314 312 309 311
327 326 325 325 324 321 320 329 332 332 333 332 332 331 325 317 317 317 316 317 317 316 316 315 312 309 308 309 310 309 309 309
326 326 325 323 320 318 317 327 330 332 332 331 331 328 320 316 317 316 317 318 316 316 317 315 313 309 308 307 307 307 307 308
325 325 324 323 321 317 319 324 323 325 327 327 325 322 318 316 316 316 317 318 316 317 317 315 312 308 306 306 307 308 309 308
322 323 323 321 321 321 321 318 320 319 322 320 320 319 316 316 316 316 317 317 317 318 318 316 312 308 307 306 307 308 308 309
319 320 320 319 317 317 318 323 321 322 323 320 317 316 316 316 316 317 318 317 317 318 318 315 312 309 307 306 307 307 307 308
319 319 318 317 317 319 322 323 324 324 323 324 322 319 317 317 317 317 319 318 318 319 318 314 312 310 308 306 306 306 306 306
319 319 318 316 315 319 321 323 324 323 323 323 323 323 321 322 322 320 320 320 319 319 318 315 313 310 308 306 306 306 306 305
317 318 316 315 317 319 320 321 321 318 319 321 323 324 324 324 325 322 322 321 320 319 318 315 313 311 308 307 307 306 306 306
318 317 317 317 317 316 316 314 313 314 315 317 316 320 323 323 324 324 322 321 321 319 317 316 315 311 309 308 307 307 307 306
317 317 318 317 319 317 315 314 312 313 313 314 315 318 319 322 323 325 323 322 320 319 318 317 315 312 310 309 307 309 308 307
316 316 317 315 315 314 314 313 313 313 313 313 316 321 322 322 323 323 325 323 321 319 319 317 315 312 310 310 306 307 306 308
317 315 314 314 313 315 316 317 317 317 317 317 318 322 322 322 323 323 325 325 323 320 319 317 316 312 310 310 310 308 304 305
317 316 315 315 315 316 317 319 320 320 321 321 323 325 324 324 324 324 325 325 325 324 320 317 316 315 312 310 308 305 305 304
317 316 316 316 317 317 320 319 321 322 322 321 322 323 324 325 325 325 325 325 325 322 321 319 317 316 313 311 307 307 305 305
317 316 317 317 318 319 321 323 323 322 321 321 322 323 324 325 325 325 326 326 325 324 321 320 316 316 312 308 310 308 308 305
317 317 317 319 320 324 325 324 324 323 322 321 323 324 324 325 326 326 326 325 324 323 320 319 319 314 311 313 311 309 307 306

GFSFLT2_925_thetae_084.txt.gz
Theta_e
328 329 333 331 331 331 334 333 331 334 333 329 325 326 329 330 329 325 318 318 320 321 320 317 317 312 312 310 311 313 314 317
327 329 330 332 330 332 329 330 329 334 332 328 321 325 327 327 325 318 317 317 320 321 320 319 318 315 312 312 310 311 314 317
327 326 325 329 329 329 330 329 330 333 333 325 321 324 324 322 317 315 316 314 315 319 320 320 318 316 314 312 309 311 313 316
327 327 327 328 328 330 330 326 325 327 331 328 321 322 319 316 315 313 314 313 313 315 317 319 319 317 314 311 309 310 312 314
327 327 328 324 324 327 328 325 324 330 331 327 323 320 317 317 316 314 313 313 312 314 315 317 316 316 313 310 309 310 311 314
327 327 324 325 324 327 326 326 326 328 327 324 324 320 317 316 316 313 313 313 311 312 311 313 313 314 312 310 309 310 311 313
326 325 322 323 324 324 326 327 327 326 327 324 322 318 316 316 317 313 312 313 312 310 309 309 310 312 310 308 308 310 311 312
325 324 322 322 323 322 322 323 325 324 324 323 321 318 317 316 317 316 315 316 316 314 315 313 309 308 308 308 308 309 311 313
323 322 321 320 320 320 320 319 317 323 323 322 319 318 317 316 317 317 316 317 316 315 313 310 307 306 306 306 307 308 308 310
323 321 320 320 319 319 320 322 322 322 320 321 322 317 317 316 316 317 315 317 316 316 315 310 308 307 306 306 307 307 307 305
322 321 320 320 320 319 320 322 322 321 321 320 321 318 317 317 316 317 316 317 316 317 316 314 310 307 306 306 306 306 307 306
321 321 320 319 320 321 319 322 323 320 319 321 322 320 316 316 316 316 316 316 317 317 317 314 312 311 307 306 306 306 306 306
320 319 318 319 320 321 321 320 320 318 317 317 321 320 316 316 316 316 316 316 317 317 317 316 313 311 309 306 305 305 306 306
319 318 318 319 319 320 321 319 320 322 320 319 320 317 316 316 316 316 317 318 318 317 318 316 315 314 309 306 306 306 306 306
318 318 317 318 320 322 320 319 320 322 321 316 319 318 319 320 321 322 322 320 320 320 319 318 317 314 311 310 306 307 306 307
318 318 317 316 318 320 318 319 319 319 317 320 321 322 322 321 323 322 323 323 323 323 321 320 318 315 310 310 309 309 309 308
317 317 317 316 316 316 316 318 318 316 318 315 316 315 315 316 317 318 320 321 322 323 322 320 318 317 315 312 308 308 307 307
316 317 316 315 315 316 315 315 316 316 316 313 313 314 315 314 313 315 320 321 321 322 322 321 320 318 317 316 313 309 306 306
315 315 315 316 316 315 315 315 314 314 316 315 313 313 313 314 314 316 318 319 322 323 323 322 322 321 320 317 315 314 312 309
316 315 315 316 317 317 317 317 316 316 316 317 315 315 314 313 314 317 317 319 321 323 323 323 323 322 321 319 317 314 312 312

GFSFLT2_925_thetae_087.txt.gz
Theta_e
331 330 331 325 333 332 334 336 331 331 331 332 331 328 328 329 330 328 325 326 324 319 313 309 311 309 310 312 314 317 318 319
328 329 332 327 332 333 330 329 334 332 330 332 331 329 329 329 328 325 320 322 322 317 315 312 312 311 311 311 313 316 318 318
328 328 330 331 329 330 331 332 334 334 333 331 330 331 330 328 326 318 320 322 320 317 315 314 312 312 311 311 314 316 318 318
328 326 325 326 329 328 330 334 334 333 332 330 330 330 328 326 319 318 320 321 320 318 317 315 315 316 313 312 315 316 317 318
327 326 326 328 328 329 331 331 333 331 331 330 328 327 325 320 317 316 317 321 322 320 317 318 317 316 313 311 314 315 316 317
327 327 327 325 325 326 328 328 330 330 327 328 325 323 321 319 316 315 314 320 323 322 319 317 315 312 309 309 313 315 315 316
326 326 326 324 324 325 326 328 328 329 328 326 323 320 317 314 314 313 313 314 316 318 317 317 314 312 309 309 311 314 315 315
326 325 324 324 323 326 326 326 328 326 326 323 321 319 315 314 313 312 312 313 314 315 313 314 313 311 309 309 311 314 314 315
324 324 323 323 322 326 326 327 326 323 326 323 318 316 316 315 312 312 312 310 309 310 310 312 311 310 309 309 309 309 312 312
323 322 322 321 324 323 325 325 324 324 324 322 316 316 316 316 312 313 315 313 312 313 311 310 309 308 308 308 307 308 309 311
322 322 320 320 321 322 322 322 322 320 324 321 317 316 316 317 316 315 315 314 314 314 310 308 307 306 306 306 307 307 307 307
321 320 320 320 319 321 320 320 320 321 322 321 318 317 316 316 317 316 316 316 315 316 312 309 309 308 306 306 307 307 307 307
321 320 320 319 319 320 321 321 320 318 317 316 321 319 317 316 316 316 315 316 317 317 314 312 310 308 307 307 306 305 306 306
319 320 320 320 320 319 319 320 322 321 320 318 318 319 317 317 316 316 316 316 317 317 316 315 314 310 311 310 314 310 306 306
318 319 319 319 320 320 318 319 321 318 317 319 318 317 316 316 316 316 316 316 316 316 317 317 317 314 311 315 314 317 312 309
318 318 318 319 319 320 318 318 320 319 316 317 319 316 316 317 316 316 316 316 317 317 319 317 317 316 311 311 313 313 318 317
319 318 317 318 320 319 319 318 318 320 319 319 319 319 317 316 316 317 320 320 320 321 320 320 320 318 316 313 311 310 310 313
317 317 317 317 319 319 319 320 319 319 319 318 318 319 321 321 321 321 322 322 322 322 322 322 321 319 317 316 315 315 312 311
317 316 318 317 316 318 317 317 318 317 317 316 316 317 319 316 316 318 318 317 318 319 321 321 321 320 319 318 315 316 317 312
316 316 317 317 317 317 316 317 317 317 316 316 316 316 315 314 314 314 314 314 315 316 319 320 321 320 319 319 317 315 313 313

GFSFLT2_925_thetae_090.txt.gz
Theta_e
334 335 336 330 326 326 326 340 339 337 335 334 335 334 330 330 331 331 331 327 315 311 307 307 309 312 315 316 319 320 320 320
334 334 332 330 329 327 332 337 336 337 333 334 333 331 330 332 331 329 328 324 314 310 310 308 311 313 315 317 318 319 319 319
330 331 331 327 328 331 330 335 334 334 333 334 332 332 331 331 330 326 325 320 315 311 312 311 311 312 314 314 318 319 319 318
330 331 332 331 328 330 330 329 334 334 334 333 332 332 330 329 327 323 322 320 315 313 313 312 315 315 315 316 317 318 319 319
330 328 329 329 330 330 330 328 331 332 332 331 332 331 329 326 326 327 325 321 320 317 316 318 318 316 315 316 317 318 318 318
328 327 327 327 326 329 330 329 328 327 326 328 329 329 327 324 325 326 325 323 322 321 319 320 319 317 316 317 317 317 318 318
328 327 326 325 326 327 328 329 329 327 326 326 328 328 325 323 323 325 324 324 323 322 322 321 319 316 316 316 317 317 317 317
327 327 326 324 324 324 325 328 330 328 327 327 326 325 323 322 322 322 324 325 324 322 321 320 317 316 316 316 316 316 316 317
326 325 325 324 324 324 325 325 329 328 326 325 324 323 322 320 319 319 319 320 321 320 320 317 317 316 315 315 315 316 316 317
323 324 323 323 323 324 325 327 328 327 325 322 321 321 320 318 317 316 316 317 317 317 317 316 316 315 315 314 314 316 316 316
322 323 322 323 323 325 326 325 325 324 323 320 318 316 315 315 317 315 312 312 313 314 316 316 314 314 313 313 313 313 315 315
322 321 321 322 323 323 323 322 321 322 322 319 317 314 314 313 315 313 312 313 316 315 314 314 314 313 311 311 312 311 311 311
321 321 320 322 322 322 322 322 321 322 321 320 317 316 316 314 313 315 316 317 318 317 316 315 313 312 310 311 311 311 312 312
321 323 321 322 321 321 321 321 321 322 321 320 319 316 317 318 318 319 319 318 318 318 316 316 316 313 316 318 320 316 313 312
320 321 321 322 322 320 320 319 319 319 320 319 319 315 319 320 320 319 319 320 320 319 319 320 320 318 316 320 323 323 321 317
322 320 320 321 320 320 320 320 321 319 319 318 320 321 321 320 320 320 320 318 319 321 321 321 321 322 319 317 318 320 323 323
322 321 320 320 321 320 319 319 322 320 320 318 319 318 317 318 320 320 320 320 320 321 321 321 321 322 322 321 318 319 319 321
322 321 320 319 320 320 319 318 320 320 319 319 318 317 317 317 319 321 321 321 321 322 323 323 323 323 323 322 321 321 320 320
322 321 321 320 321 320 320 320 318 321 319 319 320 319 318 318 320 321 322 323 324 325 325 324 324 324 324 323 322 322 322 322
320 320 321 320 321 321 322 322 320 320 321 320 319 319 320 321 322 322 323 324 325 324 323 323 322 323 323 323 323 323 322 321

GFSFLT2_925_thetae_093.txt.gz
Theta_e
338 339 339 335 334 326 324 322 327 334 334 337 335 334 332 329 330 330 326 318 312 308 312 316 318 319 319 320 320 321 322 322
337 337 338 338 334 329 326 326 325 334 333 336 335 333 330 331 332 330 325 313 307 307 310 313 315 317 315 320 320 321 321 320
335 335 337 334 332 329 326 325 324 328 333 336 334 333 332 331 333 330 320 312 308 307 308 310 312 313 317 319 320 320 320 320
333 334 335 335 329 329 328 327 324 325 335 335 333 333 332 332 332 329 317 311 310 309 310 310 314 316 317 318 321 320 320 319
333 332 332 333 331 330 327 324 326 330 335 332 332 333 331 331 330 327 321 313 318 316 312 317 316 315 318 319 320 320 320 319
333 331 331 331 331 331 329 327 327 332 333 332 331 332 330 330 329 327 322 321 320 319 319 320 319 317 319 319 319 319 320 319
332 330 330 330 331 328 330 329 325 332 332 331 331 330 330 328 328 327 324 323 322 320 322 321 320 318 319 319 319 319 320 319
329 328 327 327 329 326 328 330 328 325 326 327 328 329 327 328 328 326 325 324 323 322 323 322 319 318 318 318 318 319 319 319
326 326 325 326 327 325 327 327 328 326 323 324 326 326 325 326 327 326 325 325 324 324 323 320 318 317 318 318 318 318 319 320
324 324 324 324 324 324 324 325 327 328 326 324 326 325 324 324 325 326 326 325 324 323 321 319 318 317 317 317 317 318 318 319
325 323 323 324 323 324 325 325 326 327 325 326 325 324 323 323 322 322 323 323 322 321 319 318 318 317 317 317 317 317 318 318
323 323 324 323 324 325 325 326 325 325 324 324 323 323 322 321 320 319 319 318 317 317 318 318 317 316 315 315 315 315 316 317
325 322 323 323 323 322 323 323 324 323 322 321 321 320 319 319 319 317 316 316 315 316 317 317 317 316 314 314 315 315 314 314
325 325 323 324 324 324 321 321 322 321 320 319 319 318 317 317 317 316 316 317 316 317 318 318 318 315 315 318 321 317 315 315
324 325 324 324 322 322 321 321 320 319 318 316 315 316 317 315 314 316 318 318 320 321 320 319 320 317 317 321 324 324 321 317
323 324 323 324 324 323 321 321 321 320 320 319 320 319 319 319 319 319 319 321 322 320 320 319 322 322 321 320 321 322 324 324
324 323 322 323 323 323 323 321 320 321 320 320 320 317 315 317 317 321 321 321 321 319 321 323 323 323 323 323 321 321 321 322
325 323 322 322 323 323 323 320 320 320 320 319 319 318 316 317 320 321 322 322 322 322 322 322 323 323 324 323 323 322 321 322
324 324 323 322 323 323 323 321 322 320 321 319 319 319 319 318 320 321 322 322 322 322 323 323 324 324 324 324 323 322 323 323
324 323 323 323 322 323 322 321 320 320 320 320 318 319 318 318 317 319 321 322 323 323 324 325 324 324 324 325 324 323 322 321

GFSFLT2_925_thetae_096.txt.gz
Theta_e
340 340 337 337 339 338 337 332 326 326 325 330 337 335 335 333 330 330 330 328 325 323 323 322 319 321 322 321 321 323 323 322
338 337 338 339 335 337 334 325 325 324 323 324 332 332 334 331 329 329 328 324 321 316 318 320 318 320 320 321 321 323 322 321
335 335 336 338 337 334 329 326 324 322 322 321 330 334 331 330 329 327 323 320 313 312 314 316 315 317 320 320 321 321 321 320
334 334 335 335 334 332 329 327 327 326 324 322 332 333 332 331 329 322 317 312 309 310 311 313 311 318 319 320 321 320 320 319
333 331 334 333 332 329 328 326 327 326 324 323 331 333 333 332 329 320 316 309 310 310 311 313 313 318 319 321 321 320 320 319
333 333 331 331 331 331 329 325 325 325 324 327 333 333 333 331 328 319 314 315 313 309 317 316 314 317 319 320 321 320 319 319
333 331 330 331 330 331 329 327 326 325 327 329 333 332 333 331 327 320 315 318 314 317 320 317 317 318 319 319 319 320 320 318
332 330 329 329 330 329 330 327 327 330 331 332 332 332 331 330 326 321 322 320 318 320 321 320 319 319 319 319 319 321 319 319
329 327 328 328 328 327 329 329 326 330 332 332 331 331 330 329 327 323 325 322 320 322 322 321 319 318 319 319 319 319 319 319
327 325 326 326 328 326 327 329 328 327 329 329 329 329 328 328 328 325 326 324 322 324 322 320 318 318 318 318 318 318 320 320
325 324 325 325 325 325 325 327 328 326 325 326 327 326 327 327 327 326 325 326 324 323 322 319 318 318 318 318 318 318 318 319
325 324 326 324 324 324 325 327 326 328 324 325 326 325 325 326 326 326 326 325 324 323 321 319 318 318 318 317 317 318 318 318
324 325 324 324 323 324 326 327 327 327 326 324 326 324 324 323 322 323 322 322 321 319 318 318 317 317 316 316 315 315 316 318
325 323 324 324 323 322 324 325 325 324 323 324 324 323 321 320 321 319 318 318 317 318 317 317 317 317 314 314 316 316 315 315
325 325 325 324 322 322 322 322 321 321 321 320 320 319 320 319 319 317 318 316 316 317 317 317 317 316 315 319 322 322 318 316
325 325 325 323 323 323 322 322 321 320 320 319 319 319 319 318 317 317 316 316 318 319 319 319 319 318 316 316 319 322 321 321
325 324 325 324 324 323 322 321 320 318 317 317 317 317 316 317 316 315 317 319 319 321 321 320 320 323 321 322 320 320 321 322
325 324 324 324 324 323 322 321 320 318 317 316 316 317 318 318 317 318 319 319 320 318 320 319 320 322 323 323 323 322 322 322
325 324 323 324 324 324 323 322 320 319 318 317 317 317 318 318 317 318 319 320 319 318 320 319 322 322 322 322 321 323 322 322
324 324 323 323 324 324 323 321 321 320 319 319 319 318 317 317 316 316 317 320 321 322 322 322 323 323 322 322 322 322 322 322

GFSFLT2_925_thetae_102.txt.gz
Theta_e
339 340 340 340 340 341 342 341 338 337 335 333 328 326 328 331 331 332 331 330 329 329 327 327 328 327 325 324 323 323 322 322
336 339 340 340 339 339 339 339 337 335 333 329 328 325 327 328 331 332 330 328 328 326 325 327 327 325 321 324 324 323 321 320
335 336 337 336 337 338 339 338 336 334 332 328 326 324 323 325 329 332 330 327 326 324 325 327 325 320 322 324 323 321 320 320
335 334 334 335 337 337 336 334 333 333 331 330 327 325 327 326 330 331 330 325 323 324 326 325 320 322 322 322 321 320 318 319
334 333 334 335 337 335 334 333 332 332 330 328 329 328 326 323 328 329 330 323 322 323 325 322 319 320 321 321 321 319 317 318
333 333 333 336 335 334 333 329 327 326 327 326 324 324 324 325 327 329 329 323 322 320 323 320 319 320 321 320 320 319 317 317
332 332 334 334 333 332 331 329 328 327 324 323 323 324 326 329 329 328 326 319 318 318 320 319 319 320 320 320 319 318 317 318
331 331 331 331 330 330 329 329 328 326 326 325 323 327 328 328 326 327 321 313 315 315 318 319 319 320 320 319 319 317 316 317
332 331 329 329 330 329 329 329 326 326 325 325 325 325 328 325 326 323 314 313 313 313 313 318 319 319 320 319 319 318 316 316
330 329 328 327 329 329 329 328 326 325 325 324 325 327 326 325 323 316 311 311 311 311 317 317 319 318 319 319 319 318 317 315
326 326 326 327 328 327 329 328 327 329 327 325 325 327 326 322 319 311 309 310 314 313 315 316 319 318 319 319 319 318 317 315
325 325 326 326 328 326 328 329 329 329 330 327 330 326 324 322 315 309 309 316 319 317 316 317 318 318 318 319 319 319 318 318
325 325 325 325 325 326 326 328 327 329 328 328 329 328 323 319 315 311 313 318 320 318 318 318 318 318 318 316 318 319 319 319
324 325 325 324 323 323 324 325 327 327 327 327 328 327 323 319 318 316 317 319 321 320 319 318 318 318 317 315 314 314 318 319
324 324 324 322 322 322 324 324 326 326 326 325 327 326 325 321 320 319 320 319 322 320 319 317 317 317 317 315 314 314 313 315
324 324 323 323 321 323 324 325 326 326 327 325 325 327 325 322 324 323 322 321 322 320 319 317 317 316 316 315 318 318 315 317
323 324 323 323 322 322 324 324 325 325 325 325 325 325 326 325 324 324 323 323 322 320 319 317 318 316 316 315 319 319 320 317
324 323 323 323 321 321 323 322 322 323 323 323 320 320 322 325 324 323 324 322 318 318 317 317 316 315 315 315 316 317 318 319
324 324 324 323 322 321 321 322 321 322 322 321 320 319 319 321 323 323 323 320 319 319 319 317 317 317 317 318 317 320 320 319
324 324 324 323 323 322 321 321 321 320 321 320 319 319 319 319 318 320 319 319 320 320 318 318 319 319 320 320 320 321 321 321

GFSFLT2_925_thetae_105.txt.gz
Theta_e
341 341 341 340 341 340 341 340 338 336 332 328 328 328 327 328 330 331 333 332 332 332 331 330 327 327 326 325 325 325 325 324
340 340 340 340 340 341 341 341 339 337 333 329 326 326 327 327 325 328 331 330 330 331 330 329 326 325 324 324 322 323 323 322
336 337 338 339 339 339 341 340 337 335 334 330 328 328 329 325 321 324 329 329 329 328 328 327 326 324 324 323 322 322 321 321
334 336 335 337 336 336 338 339 337 334 334 330 328 327 330 326 324 325 328 328 328 326 327 326 323 321 324 323 322 320 320 320
335 335 333 333 335 336 336 336 337 334 333 330 328 327 328 324 323 325 329 327 327 325 326 324 320 322 323 323 321 319 318 319
335 334 334 334 335 336 334 334 335 333 331 328 327 326 325 324 324 329 329 326 324 324 324 319 321 322 323 321 320 318 318 319
335 333 333 333 336 335 334 333 333 331 331 329 327 325 324 326 330 330 329 325 323 325 324 319 321 321 321 321 319 318 318 318
333 332 332 334 334 333 332 331 330 330 329 329 328 326 326 326 328 328 328 326 322 325 323 319 320 320 320 320 319 318 317 318
332 331 332 332 331 331 329 329 329 328 327 325 326 326 326 327 326 327 327 326 321 322 322 318 319 319 320 319 319 317 317 318
331 331 331 330 329 329 327 328 328 328 327 326 325 324 325 328 326 324 327 325 320 320 319 318 319 319 319 319 318 317 317 318
331 330 328 327 328 329 328 328 328 326 325 325 325 323 327 327 324 324 326 319 319 318 317 317 319 319 319 318 318 317 317 317
330 328 327 326 327 326 327 328 328 326 327 325 324 325 326 325 323 325 323 313 316 316 316 316 318 319 318 319 318 318 317 316
327 325 325 326 326 325 327 326 327 328 329 327 325 325 325 322 320 322 313 313 315 313 317 316 318 318 318 317 317 317 317 316
325 325 325 326 326 326 325 325 327 327 328 328 326 325 322 323 319 315 310 313 315 314 316 317 317 318 317 316 313 316 317 317
324 324 325 325 324 324 324 324 325 326 327 328 324 322 321 319 316 311 311 314 316 314 315 318 316 317 317 316 312 315 313 317
323 324 324 324 323 322 323 323 326 326 326 326 325 326 321 318 314 312 314 317 318 316 316 318 317 316 316 316 316 315 314 314
323 324 324 322 322 322 323 324 324 325 325 323 325 323 323 320 315 315 317 319 319 318 318 318 317 316 316 315 319 319 319 316
323 323 322 323 322 322 322 323 325 325 323 321 322 323 323 322 319 316 318 320 321 319 318 318 317 317 316 316 318 318 318 318
322 322 320 322 321 322 322 323 325 325 324 322 321 322 322 322 320 318 319 319 320 319 317 317 317 317 317 316 316 318 318 319
322 322 320 321 321 321 322 323 323 324 324 323 322 322 322 322 321 321 321 321 321 320 318 317 316 316 316 316 316 316 317 320

GFSFLT2_925_thetae_108.txt.gz
Theta_e
339 340 339 339 340 340 340 339 336 336 333 332 329 326 325 325 329 331 331 332 332 333 334 333 333 332 332 331 331 330 329 328
340 340 340 340 340 340 340 339 336 336 333 330 327 325 326 325 323 326 330 330 331 333 332 331 331 330 330 329 328 327 326 326
340 340 340 339 340 340 340 339 337 335 332 329 326 326 326 325 322 325 330 329 330 331 329 329 328 326 325 324 324 325 324 323
337 338 338 338 339 339 341 340 338 335 331 328 328 328 327 326 326 326 329 329 329 331 329 327 325 324 323 323 322 322 322 321
334 336 336 337 338 338 338 339 338 334 332 329 328 326 326 327 327 328 327 330 329 329 327 325 324 323 323 322 322 321 321 320
333 335 336 336 336 334 334 336 334 334 332 327 326 328 328 325 324 326 328 328 328 328 327 324 322 322 323 322 321 320 319 319
333 335 335 333 334 334 336 333 333 331 332 330 328 327 328 325 325 327 329 327 327 327 326 323 321 322 323 322 320 318 319 319
334 334 334 333 333 332 333 332 332 333 330 329 329 327 328 325 325 327 329 327 327 326 324 321 321 322 322 321 319 317 318 319
334 335 333 332 332 334 333 329 330 330 330 329 328 327 327 326 327 327 328 327 325 325 321 320 321 322 322 320 318 318 318 319
333 334 332 332 333 334 330 327 327 328 329 328 327 327 326 325 327 329 328 327 323 324 320 318 320 321 320 319 318 318 317 318
333 333 331 331 331 329 329 328 328 328 328 328 328 327 326 327 327 327 327 327 322 324 320 318 319 319 319 319 318 317 317 318
333 332 330 330 328 327 327 327 328 327 327 327 327 326 326 326 327 325 325 324 320 321 321 317 319 319 319 318 317 317 317 317
332 330 330 327 326 326 326 328 327 327 326 326 325 325 324 326 325 324 323 325 319 320 319 317 317 318 317 316 316 317 317 318
329 329 328 326 325 324 324 326 326 326 327 328 325 325 324 324 323 321 323 320 317 317 317 316 317 318 317 316 314 316 317 317
327 327 325 325 325 324 324 325 326 326 326 326 325 325 324 324 321 320 318 318 316 315 316 317 316 317 317 317 312 316 314 317
326 324 324 325 325 325 325 324 325 325 326 326 326 325 322 321 322 322 317 315 314 314 316 317 316 316 317 317 316 315 314 314
323 322 324 325 324 323 322 322 323 325 325 326 323 322 321 321 321 318 314 313 313 314 315 317 317 317 317 316 315 315 315 314
321 321 323 324 322 322 321 320 324 324 325 324 320 319 318 319 318 314 314 314 313 313 315 317 317 317 317 316 317 318 318 317
320 321 322 322 322 321 321 322 323 324 324 323 322 321 320 317 316 315 315 315 314 313 314 316 317 317 317 316 317 319 319 319
321 321 321 321 321 320 321 322 324 324 323 323 322 322 321 318 316 315 315 318 319 317 316 316 316 316 316 316 315 317 317 317

GFSFLT2_925_thetae_111.txt.gz
Theta_e
336 337 338 339 341 340 340 339 334 336 335 336 334 334 332 331 332 331 331 329 331 334 334 335 334 334 334 332 331 331 332 332
337 338 338 339 340 340 339 338 337 335 335 334 333 330 327 326 323 322 323 332 331 331 333 334 334 333 332 331 331 331 331 330
337 339 339 339 340 340 340 339 337 336 335 333 330 328 326 325 325 324 328 331 330 330 333 332 333 332 332 331 330 329 329 329
339 339 340 340 340 341 340 340 338 336 335 332 329 327 326 325 326 326 324 330 330 331 332 331 331 329 328 327 326 326 326 326
338 339 340 340 340 339 338 338 338 336 333 330 329 327 325 324 325 325 328 331 331 332 330 329 328 327 325 324 324 324 324 324
335 336 338 338 338 338 337 336 337 335 334 331 329 327 328 328 327 325 328 330 331 329 328 327 326 325 323 323 322 322 322 322
334 333 336 336 337 337 337 333 335 335 333 331 329 328 329 328 327 326 329 328 329 328 326 325 324 323 323 322 322 321 321 320
333 333 334 336 336 335 334 331 334 333 332 330 329 328 328 328 328 329 329 328 328 328 324 324 323 323 323 322 321 320 320 320
332 332 334 335 332 333 333 331 331 331 331 330 329 327 328 327 327 328 328 328 327 326 323 324 322 322 322 321 320 320 320 320
332 332 334 334 332 333 330 330 330 330 330 330 328 327 327 327 326 327 327 327 325 323 322 322 321 321 321 321 320 319 320 320
331 331 333 333 332 331 330 329 328 328 328 329 328 328 327 328 327 327 326 327 325 322 322 322 321 321 321 320 320 320 320 319
330 331 332 332 331 330 328 328 327 327 327 327 327 327 327 327 327 326 325 325 323 321 320 321 321 321 319 319 319 319 319 319
330 331 329 330 330 328 328 329 327 327 327 327 327 327 325 326 327 326 325 323 322 320 319 319 319 320 319 319 319 318 319 319
329 330 328 328 327 327 327 327 327 326 326 327 326 327 327 326 326 325 324 320 320 319 319 319 319 319 320 319 321 319 318 318
327 328 327 327 327 325 324 325 326 326 326 327 326 326 325 325 326 324 324 321 318 318 318 319 319 319 320 320 321 323 319 318
326 326 326 325 324 324 323 325 326 326 326 326 327 327 325 324 325 324 323 322 319 318 319 320 319 319 319 317 320 319 322 322
324 327 325 325 325 324 322 325 325 324 325 326 326 325 324 324 323 320 320 320 319 317 318 319 319 319 319 318 317 318 318 319
325 326 323 324 323 323 324 323 323 324 324 325 325 324 322 321 320 320 319 319 317 316 317 318 319 319 319 318 318 318 319 321
323 324 321 323 323 324 324 322 322 324 323 324 322 320 317 316 316 316 316 315 315 316 316 317 318 318 319 317 317 317 318 321
322 321 322 321 323 323 323 322 323 324 323 323 321 320 317 316 315 316 316 315 314 314 316 317 317 317 318 317 317 317 319 320

GFSFLT2_925_thetae_114.txt.gz
Theta_e
343 343 341 340 340 339 338 338 337 339 339 339 338 333 332 331 333 332 334 334 336 335 335 334 334 334 334 333 332 333 334 333
343 344 343 344 342 340 339 336 336 339 339 338 336 333 329 335 333 332 330 330 333 332 334 332 333 334 334 332 331 333 332 332
343 344 343 344 345 342 339 339 338 336 338 337 335 334 336 334 333 331 328 330 332 332 332 331 333 333 332 332 331 332 332 331
342 343 343 345 343 343 343 342 341 339 338 337 336 336 334 332 329 326 329 331 330 328 330 331 332 332 331 331 331 331 331 330
342 343 343 344 342 341 343 342 341 340 339 337 335 334 332 329 330 330 331 332 333 330 330 332 332 331 331 331 329 328 326 325
342 342 343 341 341 341 341 339 339 338 337 336 334 333 332 331 331 331 331 330 333 333 331 331 331 330 329 328 326 325 324 323
340 341 342 342 342 340 339 338 338 338 337 335 334 333 332 331 331 330 331 329 329 331 331 331 330 329 328 326 326 325 323 322
338 340 340 340 340 339 337 337 336 337 336 334 334 332 331 331 330 331 329 329 330 330 329 329 329 328 327 326 326 324 322 321
336 339 339 339 337 337 337 337 336 334 334 333 333 332 330 331 331 330 329 331 330 328 327 327 327 327 326 327 325 323 321 320
334 337 339 337 336 336 335 335 334 333 332 332 331 331 330 330 330 330 331 329 328 326 326 327 326 326 326 326 325 322 322 320
333 336 338 337 337 335 334 334 331 331 331 331 330 330 330 330 329 330 329 328 328 326 326 325 325 325 325 325 324 322 322 319
332 335 337 336 335 333 333 333 330 330 330 329 329 329 329 329 328 328 329 327 327 325 325 325 325 325 324 325 323 322 322 319
332 334 336 332 333 332 332 332 330 330 329 327 328 328 328 328 328 327 327 327 327 325 325 325 325 325 324 324 323 323 322 319
332 333 336 332 332 334 332 330 328 328 328 327 327 327 327 327 327 328 327 326 327 324 325 325 325 324 324 324 324 323 322 321
332 333 335 334 334 332 332 331 329 329 330 328 327 327 327 326 326 327 326 325 325 323 324 324 325 324 324 323 324 325 322 321
331 333 333 333 334 332 331 330 329 329 329 329 327 328 327 326 326 325 324 324 323 321 323 324 324 324 324 322 321 321 324 324
329 331 332 333 333 332 330 328 328 328 329 329 329 328 326 326 325 325 324 323 322 321 322 323 324 324 324 323 323 323 322 321
328 330 330 329 330 330 328 327 327 328 328 328 328 327 326 326 325 324 323 322 321 321 321 322 323 324 323 322 322 322 322 321
327 330 328 325 327 327 327 327 326 325 325 326 326 325 324 323 324 322 322 320 319 320 320 322 322 323 323 322 322 321 320 319
325 328 325 325 327 326 326 326 325 325 327 326 325 323 323 323 320 319 320 320 320 319 319 321 322 323 323 322 322 321 322 321

GFSFLT2_925_thetae_117.txt.gz
Theta_e
345 342 337 334 338 337 337 339 340 343 342 341 340 337 332 325 326 327 332 335 337 336 337 337 336 335 335 334 333 334 335 334
345 344 343 343 342 338 337 339 339 341 341 339 338 337 330 329 330 333 332 335 337 336 336 335 335 334 334 333 333 332 334 333
344 345 345 345 344 342 338 338 338 339 340 339 338 336 329 332 336 334 333 334 334 332 333 333 334 334 333 332 331 333 332 332
344 344 345 345 343 343 341 341 340 339 341 340 339 337 336 336 336 333 331 329 328 329 330 331 330 334 333 331 332 333 331 331
343 345 345 345 344 344 341 341 340 341 340 339 338 337 335 336 334 334 330 329 330 328 327 328 332 333 333 332 332 332 331 330
343 343 345 346 343 342 342 342 341 341 341 340 337 337 336 334 332 330 333 332 334 332 331 331 333 333 333 332 330 329 326 328
342 343 344 345 343 341 340 342 342 341 341 340 337 336 335 334 332 332 333 332 333 332 332 332 332 332 331 329 328 325 324 327
339 343 343 345 342 341 341 341 340 342 341 340 338 336 335 334 333 332 331 332 330 328 331 332 331 330 329 327 326 324 323 324
336 341 343 344 343 341 340 339 339 340 339 340 338 337 335 334 333 332 333 333 330 326 328 330 329 328 327 326 325 325 322 322
332 336 341 343 343 341 339 338 338 338 337 338 338 336 335 334 333 332 332 331 329 327 328 328 328 328 327 325 325 323 322 321
327 335 339 342 342 340 339 339 338 337 337 336 336 335 334 333 333 334 332 331 330 329 328 326 326 327 326 326 325 323 322 320
325 332 338 341 342 340 339 338 335 336 336 335 335 335 334 332 332 332 333 331 330 328 327 327 326 325 325 325 324 323 322 319
328 331 337 341 340 340 337 337 334 334 334 334 334 332 332 333 331 331 330 331 329 327 327 326 325 326 325 325 324 322 323 320
330 332 336 339 339 337 336 337 335 335 333 331 331 331 332 331 331 330 329 329 328 327 327 325 325 326 325 324 325 323 323 320
331 333 335 338 335 335 336 336 334 332 331 331 331 330 328 329 329 329 328 328 327 326 327 324 325 324 325 325 326 325 323 321
332 332 334 338 334 336 337 335 333 332 331 331 330 330 329 327 328 327 326 327 327 326 327 325 325 325 325 324 323 322 326 325
333 333 334 337 336 336 336 336 334 332 330 331 331 330 329 327 327 327 326 326 327 326 325 326 325 326 325 325 324 323 323 324
334 333 335 336 336 336 335 335 333 331 330 330 331 330 331 329 327 327 326 326 325 325 325 325 326 325 326 325 325 325 324 325
330 332 334 334 335 336 335 334 332 331 330 330 330 330 330 329 327 326 325 325 324 323 324 324 325 324 324 325 325 324 323 323
327 330 332 330 333 335 333 332 331 329 329 328 328 329 328 326 325 325 325 324 323 323 323 323 324 324 323 324 324 324 322 321

GFSFLT2_925_thetae_120.txt.gz
Theta_e
339 330 328 329 332 334 336 339 342 344 344 343 339 336 330 331 332 329 327 326 335 336 337 337 337 335 335 334 334 335 334 334
341 340 333 331 333 335 336 338 340 342 343 342 340 334 331 328 334 332 330 333 335 335 332 336 336 334 334 333 334 333 334 334
346 345 342 339 338 335 336 337 338 341 341 341 340 337 336 326 328 326 332 332 334 332 330 331 334 334 333 333 332 333 332 333
346 345 345 345 345 342 337 337 338 338 341 341 340 338 336 333 334 334 332 330 334 329 329 330 331 333 333 332 331 331 332 332
346 345 346 346 343 344 340 342 340 339 341 341 340 338 336 335 336 335 331 330 330 328 329 328 330 331 332 331 332 331 331 331
345 346 347 346 344 343 343 341 341 342 339 340 339 338 337 335 335 334 330 330 327 329 327 327 328 329 331 331 331 331 331 330
344 345 346 347 345 343 343 341 342 342 341 339 340 338 337 336 334 334 331 332 332 329 327 327 329 330 332 330 331 331 330 328
344 344 346 347 345 344 342 344 341 342 342 341 340 338 337 335 333 332 333 330 331 329 328 329 329 331 331 328 328 326 328 326
344 344 345 347 346 344 342 344 342 342 342 342 339 337 336 334 333 332 331 331 331 331 329 329 330 331 330 329 326 324 325 325
338 345 344 346 346 343 342 342 341 341 339 341 339 338 336 335 334 333 332 331 331 328 328 326 327 329 328 327 325 324 324 323
332 338 343 345 347 343 341 341 341 340 338 338 340 338 336 335 334 333 332 332 331 328 326 326 328 327 326 326 324 323 322 323
331 335 341 345 346 344 343 342 339 340 339 337 338 338 336 334 334 332 332 332 331 327 327 328 328 326 327 324 324 324 321 321
325 337 339 344 345 344 342 341 339 339 338 336 335 335 335 334 333 332 332 332 330 328 327 328 326 326 327 325 326 323 321 320
327 327 339 342 344 344 341 341 337 335 334 334 333 334 334 333 333 332 331 332 330 329 328 327 325 325 326 325 323 323 323 320
329 330 332 340 343 342 340 338 336 334 335 333 332 332 332 331 333 331 331 331 330 328 328 327 325 325 326 324 323 323 322 322
331 330 332 338 342 339 338 336 337 335 334 332 332 330 329 331 331 330 329 329 328 328 328 327 324 324 325 324 323 322 321 322
330 331 332 337 339 337 336 337 336 334 333 331 331 331 329 328 328 328 329 328 328 328 327 326 324 323 324 324 324 324 321 321
333 333 333 339 337 337 336 337 336 334 334 333 332 329 330 329 327 326 328 327 327 326 327 326 324 323 324 324 324 324 322 322
336 335 335 338 337 336 337 337 338 335 333 333 332 331 331 329 328 326 328 327 327 327 327 326 325 324 324 324 324 324 323 323
330 330 332 337 337 336 337 334 337 334 333 331 331 329 329 331 329 328 327 325 326 326 326 326 326 325 325 325 325 324 324 323

GFSFLT2_925_thetae_123.txt.gz
Theta_e
337 325 325 328 333 336 339 338 339 342 342 340 339 336 328 328 327 328 329 329 331 333 335 334 335 335 335 334 334 336 335 334
337 326 325 330 334 337 339 340 337 340 341 340 338 333 329 328 327 327 329 329 333 334 335 333 334 333 334 333 335 335 334 333
340 326 327 331 334 336 338 339 340 340 340 341 339 334 332 329 332 330 328 327 332 331 332 330 332 332 333 332 333 333 333 332
342 331 330 333 334 335 337 338 339 341 340 340 339 335 330 330 332 332 330 332 332 332 329 331 331 332 332 331 332 332 333 332
345 343 339 337 339 338 336 337 338 340 340 340 339 336 336 326 333 330 331 332 333 332 330 330 331 331 331 332 332 331 332 332
345 344 344 342 342 342 337 336 337 338 339 339 339 338 337 333 335 333 332 330 331 329 329 329 330 330 329 330 331 331 331 331
345 345 345 345 343 343 340 338 339 338 341 340 338 338 336 334 335 334 331 329 328 326 327 328 330 329 329 331 329 330 330 329
345 345 344 345 345 343 342 341 340 341 339 341 339 338 337 336 335 334 331 328 326 326 327 326 328 328 328 328 328 330 330 328
345 345 345 346 345 345 341 343 340 342 342 339 340 339 337 336 334 333 332 327 327 328 326 327 327 328 327 328 328 328 329 326
343 344 345 345 346 345 342 341 342 341 342 342 340 339 337 336 334 333 333 331 329 330 329 328 327 327 328 327 327 328 328 324
341 343 345 345 346 345 344 342 343 342 342 342 341 339 337 336 334 332 331 331 331 330 330 328 327 328 326 327 324 326 325 323
337 343 344 346 346 345 343 342 342 341 340 339 341 339 337 335 334 333 332 331 331 331 329 328 327 327 327 327 324 324 323 322
339 343 344 346 345 343 342 341 340 340 340 339 338 340 339 336 335 334 332 331 331 330 328 326 326 326 327 326 325 322 322 322
331 341 344 345 345 344 342 340 341 340 340 337 336 337 337 336 334 334 332 331 331 330 328 327 327 326 326 325 324 323 321 322
332 338 342 344 345 343 342 340 339 338 339 336 335 334 334 336 334 333 332 332 330 330 327 327 326 326 326 325 323 324 322 321
329 334 339 343 344 343 341 339 336 336 335 335 333 333 333 333 333 333 332 332 330 329 328 326 326 325 325 325 323 323 322 322
328 329 337 340 343 343 340 338 337 336 335 334 333 332 331 332 331 332 331 331 330 329 328 327 326 325 325 325 323 322 321 321
330 329 331 339 341 341 339 338 336 335 334 333 332 331 330 329 329 331 329 329 329 328 328 327 326 324 324 325 323 322 320 320
333 333 337 339 339 339 338 338 336 335 333 333 331 331 331 328 327 328 328 328 328 327 326 326 326 324 322 324 324 323 320 320
331 331 330 336 336 337 337 337 335 336 334 333 332 331 330 328 327 327 326 326 326 326 326 327 326 326 323 323 324 323 322 321

GFSFLT2_925_thetae_126.txt.gz
Theta_e
323 324 325 327 328 330 333 333 339 341 341 339 338 336 335 332 330 328 328 327 331 334 334 334 335 334 335 336 335 335 334 333
326 325 327 331 333 331 333 334 338 341 341 339 338 335 329 328 330 328 328 329 332 333 334 333 334 334 333 334 334 334 334 333
333 327 329 332 334 336 335 335 337 340 340 339 337 332 328 328 327 327 328 329 332 332 333 334 333 333 332 332 333 334 333 332
335 329 328 332 334 336 337 338 338 340 339 339 336 329 331 329 328 327 327 327 332 332 335 334 333 333 331 331 333 334 332 332
338 331 328 331 334 336 338 338 339 340 339 339 337 331 331 330 331 330 328 328 332 331 332 331 332 331 332 332 333 333 332 332
341 338 329 332 332 335 336 337 338 339 340 339 338 333 330 332 331 331 329 330 332 331 331 331 332 331 331 331 332 332 331 330
343 342 336 333 334 335 334 336 337 337 339 339 338 336 333 330 330 331 327 331 331 332 329 330 331 332 330 330 331 330 331 330
343 344 342 339 338 338 337 334 336 337 337 338 338 337 336 335 332 334 330 332 330 331 328 329 329 330 330 329 329 329 330 330
343 344 344 343 342 340 340 337 335 336 337 338 338 338 336 333 333 334 333 331 328 328 326 328 328 329 329 329 329 328 329 329
342 344 344 344 344 342 341 339 337 337 338 339 339 338 337 334 335 334 333 331 329 325 326 328 327 328 328 327 326 328 329 329
342 343 344 344 344 343 343 341 339 339 341 340 339 339 338 336 336 334 333 331 329 325 327 326 328 327 328 327 327 328 328 329
334 342 344 344 344 343 342 342 342 341 342 342 340 339 338 337 336 334 333 331 329 329 329 328 328 326 327 327 326 326 327 327
331 341 343 344 343 342 341 341 341 341 341 342 341 340 339 337 336 334 333 333 331 330 330 329 327 327 327 327 324 324 324 325
327 339 341 344 343 343 342 341 341 342 341 341 341 340 339 337 335 334 332 332 331 331 329 327 327 327 326 326 325 322 321 321
320 336 341 344 343 342 342 340 339 339 340 340 339 337 338 338 335 334 334 332 331 330 329 327 326 326 326 326 324 325 321 320
320 334 341 343 343 341 341 340 338 338 338 339 339 336 335 337 336 335 333 332 330 329 329 327 326 325 326 326 325 323 322 320
327 336 341 343 343 341 340 339 339 338 336 337 337 335 335 334 334 335 333 332 331 329 328 327 326 325 325 325 324 322 322 321
329 337 341 341 342 341 340 339 337 335 335 335 334 334 334 333 333 333 332 331 331 330 328 328 326 326 325 325 325 323 321 321
329 334 337 340 341 340 340 338 336 336 335 334 333 332 332 332 332 332 331 330 330 330 329 328 327 326 325 325 325 324 322 321
329 334 336 338 339 338 338 337 337 336 335 333 333 332 331 331 331 330 328 329 329 329 329 328 327 326 325 324 325 324 322 321